Time,TemperatureF,DewpointF,PressureIn,WindDirection,WindDirectionDegrees,WindSpeedMPH,WindSpeedGustMPH,Humidity,HourlyPrecipIn,Conditions,Clouds,dailyrainin,SoftwareType,DateUTC
2013-07-26 00:00:00,62.8,60.8,30.04,NE,36,0.0,0.0,93,0.00,,---,0.00,VWS V14.01,2013-07-26 04:00:00,
2013-07-26 00:01:00,62.8,60.8,30.04,NE,36,0.0,0.0,93,0.00,,---,0.00,VWS V14.01,2013-07-26 04:01:00,
2013-07-26 00:02:00,62.9,60.8,30.04,NE,36,0.0,0.0,93,0.00,,---,0.00,VWS V14.01,2013-07-26 04:02:00,
2013-07-26 00:06:00,63.0,61.0,30.03,NE,36,0.0,0.0,93,0.00,,---,0.00,VWS V14.01,2013-07-26 04:06:00,
2013-07-26 00:07:00,63.0,61.0,30.04,NE,36,0.0,0.0,93,0.00,,---,0.00,VWS V14.01,2013-07-26 04:07:00,
2013-07-26 00:11:00,63.0,61.0,30.04,NE,36,0.0,0.0,93,0.00,,---,0.00,VWS V14.01,2013-07-26 04:11:00,
2013-07-26 00:12:00,63.0,61.0,30.04,NE,36,0.0,0.0,93,0.00,,---,0.00,VWS V14.01,2013-07-26 04:12:00,
2013-07-26 00:13:00,63.0,61.0,30.04,NE,36,0.0,0.0,93,0.00,,---,0.00,VWS V14.01,2013-07-26 04:13:00,
2013-07-26 00:16:00,62.9,60.8,30.04,NE,36,0.0,0.0,93,0.00,,---,0.00,VWS V14.01,2013-07-26 04:16:00,
2013-07-26 00:17:00,62.9,60.8,30.04,NE,36,0.0,0.0,93,0.00,,---,0.00,VWS V14.01,2013-07-26 04:17:00,
2013-07-26 00:18:00,62.9,60.8,30.04,NE,36,0.0,0.0,93,0.00,,---,0.00,VWS V14.01,2013-07-26 04:18:00,
2013-07-26 00:22:00,62.9,60.8,30.04,NE,36,0.0,0.0,93,0.00,,---,0.00,VWS V14.01,2013-07-26 04:22:00,
2013-07-26 00:23:00,62.9,60.8,30.04,NE,36,0.0,0.0,93,0.00,,---,0.00,VWS V14.01,2013-07-26 04:23:00,
2013-07-26 00:27:00,63.0,61.0,30.04,NE,36,0.0,0.0,93,0.00,,---,0.00,VWS V14.01,2013-07-26 04:27:00,
2013-07-26 00:28:00,63.0,61.0,30.04,NE,36,0.0,0.0,93,0.00,,---,0.00,VWS V14.01,2013-07-26 04:28:00,
2013-07-26 00:32:00,63.0,61.0,30.04,NE,36,0.0,0.0,93,0.00,,---,0.00,VWS V14.01,2013-07-26 04:32:00,
2013-07-26 00:33:00,63.0,61.0,30.04,NE,36,0.0,0.0,93,0.00,,---,0.00,VWS V14.01,2013-07-26 04:33:00,
2013-07-26 00:38:00,63.1,61.0,30.04,NE,36,0.0,0.0,93,0.00,,---,0.00,VWS V14.01,2013-07-26 04:38:00,
2013-07-26 00:39:00,63.1,61.0,30.04,NE,36,0.0,0.0,93,0.00,,---,0.00,VWS V14.01,2013-07-26 04:39:00,
2013-07-26 00:43:00,63.2,61.2,30.04,NE,36,0.0,0.0,93,0.00,,---,0.00,VWS V14.01,2013-07-26 04:43:00,
2013-07-26 00:44:00,63.2,61.2,30.04,NE,36,0.0,0.0,93,0.00,,---,0.00,VWS V14.01,2013-07-26 04:44:00,
2013-07-26 00:45:00,63.2,61.2,30.04,NE,36,0.0,0.0,93,0.00,,---,0.00,VWS V14.01,2013-07-26 04:45:00,
2013-07-26 00:48:00,63.3,61.2,30.04,NE,36,0.0,0.0,93,0.00,,---,0.00,VWS V14.01,2013-07-26 04:48:00,
2013-07-26 00:49:00,63.3,61.2,30.04,NE,36,0.0,0.0,93,0.00,,---,0.00,VWS V14.01,2013-07-26 04:49:00,
2013-07-26 00:50:00,63.4,61.3,30.04,NE,36,0.0,0.0,93,0.00,,---,0.00,VWS V14.01,2013-07-26 04:50:00,
2013-07-26 00:53:00,63.4,61.0,30.04,NE,36,0.0,0.0,92,0.00,,---,0.00,VWS V14.01,2013-07-26 04:53:00,
2013-07-26 00:55:00,63.4,61.0,30.04,NE,36,0.0,0.0,92,0.00,,---,0.00,VWS V14.01,2013-07-26 04:55:00,
2013-07-26 00:59:00,63.5,61.1,30.03,NE,36,0.0,0.0,92,0.00,,---,0.00,VWS V14.01,2013-07-26 04:59:00,
2013-07-26 01:00:00,63.6,61.2,30.03,NE,36,0.0,0.0,92,0.00,,---,0.00,VWS V14.01,2013-07-26 05:00:00,
2013-07-26 01:01:00,63.6,61.2,30.04,NE,36,0.0,0.0,92,0.00,,---,0.00,VWS V14.01,2013-07-26 05:01:00,
2013-07-26 01:04:00,63.6,61.2,30.04,NE,36,0.0,0.0,92,0.00,,---,0.00,VWS V14.01,2013-07-26 05:04:00,
2013-07-26 01:05:00,63.6,61.2,30.03,NE,36,0.0,0.0,92,0.00,,---,0.00,VWS V14.01,2013-07-26 05:05:00,
2013-07-26 01:06:00,63.6,61.2,30.03,NE,36,0.0,0.0,92,0.00,,---,0.00,VWS V14.01,2013-07-26 05:06:00,
2013-07-26 01:09:00,63.6,61.2,30.03,NE,36,0.0,0.0,92,0.00,,---,0.00,VWS V14.01,2013-07-26 05:09:00,
2013-07-26 01:10:00,63.6,61.2,30.03,NE,36,0.0,0.0,92,0.00,,---,0.00,VWS V14.01,2013-07-26 05:10:00,
2013-07-26 01:11:00,63.6,61.2,30.03,NE,36,0.0,0.0,92,0.00,,---,0.00,VWS V14.01,2013-07-26 05:11:00,
2013-07-26 01:12:00,63.6,61.2,30.03,NE,36,0.0,0.0,92,0.00,,---,0.00,VWS V14.01,2013-07-26 05:12:00,
2013-07-26 01:15:00,63.6,61.2,30.03,NE,36,0.0,0.0,92,0.00,,---,0.00,VWS V14.01,2013-07-26 05:15:00,
2013-07-26 01:16:00,63.5,61.1,30.03,NE,36,0.0,0.0,92,0.00,,---,0.00,VWS V14.01,2013-07-26 05:16:00,
2013-07-26 01:17:00,63.5,61.1,30.03,NE,36,0.0,0.0,92,0.00,,---,0.00,VWS V14.01,2013-07-26 05:17:00,
2013-07-26 01:21:00,63.4,61.0,30.03,NE,36,0.0,0.0,92,0.00,,---,0.00,VWS V14.01,2013-07-26 05:21:00,
2013-07-26 01:22:00,63.4,61.0,30.03,NE,36,0.0,0.0,92,0.00,,---,0.00,VWS V14.01,2013-07-26 05:22:00,
2013-07-26 01:26:00,63.2,60.8,30.03,NE,36,0.0,0.0,92,0.00,,---,0.00,VWS V14.01,2013-07-26 05:26:00,
2013-07-26 01:27:00,63.1,61.0,30.03,NE,36,0.0,0.0,93,0.00,,---,0.00,VWS V14.01,2013-07-26 05:27:00,
2013-07-26 01:29:00,63.1,61.0,30.03,NE,36,0.0,0.0,93,0.00,,---,0.00,VWS V14.01,2013-07-26 05:29:00,
2013-07-26 01:31:00,63.0,61.0,30.03,NE,36,0.0,0.0,93,0.00,,---,0.00,VWS V14.01,2013-07-26 05:31:00,
2013-07-26 01:32:00,63.0,61.0,30.03,NE,36,0.0,0.0,93,0.00,,---,0.00,VWS V14.01,2013-07-26 05:32:00,
2013-07-26 01:33:00,62.9,60.8,30.03,NE,36,0.0,0.0,93,0.00,,---,0.00,VWS V14.01,2013-07-26 05:33:00,
2013-07-26 01:34:00,62.9,60.8,30.03,NE,36,0.0,0.0,93,0.00,,---,0.00,VWS V14.01,2013-07-26 05:34:00,
2013-07-26 01:36:00,62.8,61.0,30.03,NE,36,0.0,0.0,94,0.00,,---,0.00,VWS V14.01,2013-07-26 05:36:00,
2013-07-26 01:38:00,62.7,61.0,30.03,NE,36,0.0,0.0,94,0.00,,---,0.00,VWS V14.01,2013-07-26 05:38:00,
2013-07-26 01:39:00,62.7,61.0,30.03,NE,36,0.0,0.0,94,0.00,,---,0.00,VWS V14.01,2013-07-26 05:39:00,
2013-07-26 01:42:00,62.7,61.0,30.03,NE,36,0.0,0.0,94,0.00,,---,0.00,VWS V14.01,2013-07-26 05:42:00,
2013-07-26 01:43:00,62.7,61.0,30.03,NE,36,0.0,0.0,94,0.00,,---,0.00,VWS V14.01,2013-07-26 05:43:00,
2013-07-26 01:44:00,62.7,61.0,30.03,NE,36,0.0,0.0,94,0.00,,---,0.00,VWS V14.01,2013-07-26 05:44:00,
2013-07-26 01:47:00,62.8,60.8,30.03,NE,36,0.0,0.0,93,0.00,,---,0.00,VWS V14.01,2013-07-26 05:47:00,
2013-07-26 01:48:00,62.8,60.8,30.03,NE,36,0.0,0.0,93,0.00,,---,0.00,VWS V14.01,2013-07-26 05:48:00,
2013-07-26 01:49:00,62.8,61.0,30.03,NE,36,0.0,0.0,94,0.00,,---,0.00,VWS V14.01,2013-07-26 05:49:00,
2013-07-26 01:50:00,62.8,61.0,30.03,NE,36,0.0,0.0,94,0.00,,---,0.00,VWS V14.01,2013-07-26 05:50:00,
2013-07-26 01:51:00,62.8,61.0,30.03,NE,36,0.0,0.0,94,0.00,,---,0.00,VWS V14.01,2013-07-26 05:51:00,
2013-07-26 01:53:00,62.7,61.0,30.03,NE,36,0.0,0.0,94,0.00,,---,0.00,VWS V14.01,2013-07-26 05:53:00,
2013-07-26 01:54:00,62.7,61.0,30.03,NE,36,0.0,0.0,94,0.00,,---,0.00,VWS V14.01,2013-07-26 05:54:00,
2013-07-26 01:55:00,62.7,61.0,30.03,NE,36,0.0,0.0,94,0.00,,---,0.00,VWS V14.01,2013-07-26 05:55:00,
2013-07-26 01:57:00,62.6,60.8,30.03,NE,36,0.0,0.0,94,0.00,,---,0.00,VWS V14.01,2013-07-26 05:57:00,
2013-07-26 01:58:00,62.6,60.8,30.03,NE,36,0.0,0.0,94,0.00,,---,0.00,VWS V14.01,2013-07-26 05:58:00,
2013-07-26 01:59:00,62.6,60.8,30.03,NE,36,0.0,0.0,94,0.00,,---,0.00,VWS V14.01,2013-07-26 05:59:00,
2013-07-26 02:00:00,62.5,60.8,30.03,NE,36,0.0,0.0,94,0.00,,---,0.00,VWS V14.01,2013-07-26 06:00:00,
2013-07-26 02:01:00,62.5,60.8,30.03,NE,36,0.0,0.0,94,0.00,,---,0.00,VWS V14.01,2013-07-26 06:01:00,
2013-07-26 02:02:00,62.5,60.8,30.03,NE,36,0.0,0.0,94,0.00,,---,0.00,VWS V14.01,2013-07-26 06:02:00,
2013-07-26 02:03:00,62.4,60.7,30.03,NE,36,0.0,0.0,94,0.00,,---,0.00,VWS V14.01,2013-07-26 06:03:00,
2013-07-26 02:04:00,62.4,60.7,30.03,NE,36,0.0,0.0,94,0.00,,---,0.00,VWS V14.01,2013-07-26 06:04:00,
2013-07-26 02:05:00,62.4,60.7,30.03,NE,36,0.0,0.0,94,0.00,,---,0.00,VWS V14.01,2013-07-26 06:05:00,
2013-07-26 02:06:00,62.4,60.7,30.03,NE,36,0.0,0.0,94,0.00,,---,0.00,VWS V14.01,2013-07-26 06:06:00,
2013-07-26 02:07:00,62.3,60.6,30.03,NE,36,0.0,0.0,94,0.00,,---,0.00,VWS V14.01,2013-07-26 06:07:00,
2013-07-26 02:09:00,62.3,60.6,30.03,NE,36,0.0,0.0,94,0.00,,---,0.00,VWS V14.01,2013-07-26 06:09:00,
2013-07-26 02:11:00,62.2,60.5,30.03,NE,36,0.0,0.0,94,0.00,,---,0.00,VWS V14.01,2013-07-26 06:11:00,
2013-07-26 02:12:00,62.2,60.5,30.03,NE,36,0.0,0.0,94,0.00,,---,0.00,VWS V14.01,2013-07-26 06:12:00,
2013-07-26 02:13:00,62.2,60.5,30.03,NE,36,0.0,0.0,94,0.00,,---,0.00,VWS V14.01,2013-07-26 06:13:00,
2013-07-26 02:14:00,62.2,60.5,30.03,NE,36,0.0,0.0,94,0.00,,---,0.00,VWS V14.01,2013-07-26 06:14:00,
2013-07-26 02:15:00,62.1,60.4,30.02,NE,36,0.0,0.0,94,0.00,,---,0.00,VWS V14.01,2013-07-26 06:15:00,
2013-07-26 02:16:00,62.1,60.4,30.02,NE,36,0.0,0.0,94,0.00,,---,0.00,VWS V14.01,2013-07-26 06:16:00,
2013-07-26 02:18:00,62.1,60.4,30.02,NE,36,0.0,0.0,94,0.00,,---,0.00,VWS V14.01,2013-07-26 06:18:00,
2013-07-26 02:19:00,62.1,60.4,30.02,NE,36,0.0,0.0,94,0.00,,---,0.00,VWS V14.01,2013-07-26 06:19:00,
2013-07-26 02:20:00,62.1,60.4,30.02,NE,36,0.0,0.0,94,0.00,,---,0.00,VWS V14.01,2013-07-26 06:20:00,
2013-07-26 02:21:00,62.0,60.3,30.02,NE,36,0.0,0.0,94,0.00,,---,0.00,VWS V14.01,2013-07-26 06:21:00,
2013-07-26 02:23:00,62.0,60.3,30.02,NE,36,0.0,0.0,94,0.00,,---,0.00,VWS V14.01,2013-07-26 06:23:00,
2013-07-26 02:24:00,62.0,60.3,30.02,NE,36,0.0,0.0,94,0.00,,---,0.00,VWS V14.01,2013-07-26 06:24:00,
2013-07-26 02:25:00,62.0,60.3,30.02,NE,36,0.0,0.0,94,0.00,,---,0.00,VWS V14.01,2013-07-26 06:25:00,
2013-07-26 02:27:00,61.9,60.2,30.02,NE,36,0.0,0.0,94,0.00,,---,0.00,VWS V14.01,2013-07-26 06:27:00,
2013-07-26 02:28:00,61.9,60.2,30.02,NE,36,0.0,0.0,94,0.00,,---,0.00,VWS V14.01,2013-07-26 06:28:00,
2013-07-26 02:29:00,61.9,60.2,30.02,NE,36,0.0,0.0,94,0.00,,---,0.00,VWS V14.01,2013-07-26 06:29:00,
2013-07-26 02:30:00,61.9,60.2,30.02,NE,36,0.0,0.0,94,0.00,,---,0.00,VWS V14.01,2013-07-26 06:30:00,
2013-07-26 02:32:00,61.9,60.2,30.02,NE,36,0.0,0.0,94,0.00,,---,0.00,VWS V14.01,2013-07-26 06:32:00,
2013-07-26 02:34:00,61.9,60.2,30.02,NE,36,0.0,0.0,94,0.00,,---,0.00,VWS V14.01,2013-07-26 06:34:00,
2013-07-26 02:36:00,61.9,60.2,30.02,NE,36,0.0,0.0,94,0.00,,---,0.00,VWS V14.01,2013-07-26 06:36:00,
2013-07-26 02:38:00,61.9,60.2,30.02,NE,36,0.0,0.0,94,0.00,,---,0.00,VWS V14.01,2013-07-26 06:38:00,
2013-07-26 02:39:00,61.8,60.1,30.02,NE,36,0.0,0.0,94,0.00,,---,0.00,VWS V14.01,2013-07-26 06:39:00,
2013-07-26 02:40:00,61.9,60.2,30.02,NE,36,0.0,0.0,94,0.00,,---,0.00,VWS V14.01,2013-07-26 06:40:00,
2013-07-26 02:41:00,61.9,60.2,30.02,NE,36,0.0,0.0,94,0.00,,---,0.00,VWS V14.01,2013-07-26 06:41:00,
2013-07-26 02:43:00,61.9,60.2,30.02,NE,36,0.0,0.0,94,0.00,,---,0.00,VWS V14.01,2013-07-26 06:43:00,
2013-07-26 02:44:00,61.9,60.2,30.02,NE,36,0.0,0.0,94,0.00,,---,0.00,VWS V14.01,2013-07-26 06:44:00,
2013-07-26 02:45:00,61.9,60.2,30.02,NE,36,0.0,0.0,94,0.00,,---,0.00,VWS V14.01,2013-07-26 06:45:00,
2013-07-26 02:47:00,62.0,60.3,30.02,NE,36,0.0,0.0,94,0.00,,---,0.00,VWS V14.01,2013-07-26 06:47:00,
2013-07-26 02:48:00,61.9,60.2,30.02,NE,36,0.0,0.0,94,0.00,,---,0.00,VWS V14.01,2013-07-26 06:48:00,
2013-07-26 02:50:00,62.0,60.3,30.02,NE,36,0.0,0.0,94,0.00,,---,0.00,VWS V14.01,2013-07-26 06:50:00,
2013-07-26 02:52:00,61.9,60.2,30.02,NE,36,0.0,0.0,94,0.00,,---,0.00,VWS V14.01,2013-07-26 06:52:00,
2013-07-26 02:54:00,61.8,60.1,30.02,NE,36,0.0,0.0,94,0.00,,---,0.00,VWS V14.01,2013-07-26 06:54:00,
2013-07-26 02:55:00,61.8,60.1,30.02,NE,36,0.0,0.0,94,0.00,,---,0.00,VWS V14.01,2013-07-26 06:55:00,
2013-07-26 02:56:00,61.8,60.1,30.02,NE,36,0.0,0.0,94,0.00,,---,0.00,VWS V14.01,2013-07-26 06:56:00,
2013-07-26 02:57:00,61.8,60.1,30.02,NE,36,0.0,0.0,94,0.00,,---,0.00,VWS V14.01,2013-07-26 06:57:00,
2013-07-26 03:00:00,61.8,60.1,30.02,NE,36,0.0,0.0,94,0.00,,---,0.00,VWS V14.01,2013-07-26 07:00:00,
2013-07-26 03:01:00,61.8,60.1,30.02,NE,36,0.0,0.0,94,0.00,,---,0.00,VWS V14.01,2013-07-26 07:01:00,
2013-07-26 03:04:00,61.9,60.2,30.02,NE,36,0.0,0.0,94,0.00,,---,0.00,VWS V14.01,2013-07-26 07:04:00,
2013-07-26 03:05:00,61.9,60.2,30.02,NE,36,0.0,0.0,94,0.00,,---,0.00,VWS V14.01,2013-07-26 07:05:00,
2013-07-26 03:06:00,61.9,60.2,30.02,NE,36,0.0,0.0,94,0.00,,---,0.00,VWS V14.01,2013-07-26 07:06:00,
2013-07-26 03:10:00,61.8,60.1,30.02,NE,36,0.0,0.0,94,0.00,,---,0.00,VWS V14.01,2013-07-26 07:10:00,
2013-07-26 03:11:00,61.7,60.0,30.02,NE,36,0.0,0.0,94,0.00,,---,0.00,VWS V14.01,2013-07-26 07:11:00,
2013-07-26 03:12:00,61.7,60.0,30.02,NE,36,0.0,0.0,94,0.00,,---,0.00,VWS V14.01,2013-07-26 07:12:00,
2013-07-26 03:15:00,61.5,59.8,30.02,NE,36,0.0,0.0,94,0.00,,---,0.00,VWS V14.01,2013-07-26 07:15:00,
2013-07-26 03:16:00,61.4,59.7,30.02,NE,36,0.0,0.0,94,0.00,,---,0.00,VWS V14.01,2013-07-26 07:16:00,
2013-07-26 03:17:00,61.4,59.7,30.02,NE,36,0.0,0.0,94,0.00,,---,0.00,VWS V14.01,2013-07-26 07:17:00,
2013-07-26 03:20:00,61.2,59.5,30.02,NE,36,0.0,0.0,94,0.00,,---,0.00,VWS V14.01,2013-07-26 07:20:00,
2013-07-26 03:22:00,61.1,59.7,30.02,NE,36,0.0,0.0,95,0.00,,---,0.00,VWS V14.01,2013-07-26 07:22:00,
2013-07-26 03:23:00,61.1,59.7,30.02,NE,36,0.0,0.0,95,0.00,,---,0.00,VWS V14.01,2013-07-26 07:23:00,
2013-07-26 03:26:00,61.0,59.6,30.02,NE,36,0.0,0.0,95,0.00,,---,0.00,VWS V14.01,2013-07-26 07:26:00,
2013-07-26 03:27:00,60.9,59.5,30.02,NE,36,0.0,0.0,95,0.00,,---,0.00,VWS V14.01,2013-07-26 07:27:00,
2013-07-26 03:28:00,60.9,59.5,30.02,NE,36,0.0,0.0,95,0.00,,---,0.00,VWS V14.01,2013-07-26 07:28:00,
2013-07-26 03:31:00,60.9,59.5,30.02,NE,36,0.0,0.0,95,0.00,,---,0.00,VWS V14.01,2013-07-26 07:31:00,
2013-07-26 03:32:00,60.9,59.5,30.02,NE,36,0.0,0.0,95,0.00,,---,0.00,VWS V14.01,2013-07-26 07:32:00,
2013-07-26 03:33:00,60.9,59.8,30.02,NE,36,0.0,0.0,96,0.00,,---,0.00,VWS V14.01,2013-07-26 07:33:00,
2013-07-26 03:37:00,60.9,59.8,30.02,NE,36,0.0,0.0,96,0.00,,---,0.00,VWS V14.01,2013-07-26 07:37:00,
2013-07-26 03:38:00,61.0,59.9,30.02,NE,36,0.0,0.0,96,0.00,,---,0.00,VWS V14.01,2013-07-26 07:38:00,
2013-07-26 03:39:00,61.0,59.9,30.02,NE,36,0.0,0.0,96,0.00,,---,0.00,VWS V14.01,2013-07-26 07:39:00,
2013-07-26 03:42:00,61.0,59.9,30.02,NE,36,0.0,0.0,96,0.00,,---,0.00,VWS V14.01,2013-07-26 07:42:00,
2013-07-26 03:43:00,61.0,59.9,30.02,NE,36,0.0,0.0,96,0.00,,---,0.00,VWS V14.01,2013-07-26 07:43:00,
2013-07-26 03:44:00,61.0,59.9,30.02,NE,36,0.0,0.0,96,0.00,,---,0.00,VWS V14.01,2013-07-26 07:44:00,
2013-07-26 03:47:00,61.0,59.9,30.02,NE,36,0.0,0.0,96,0.00,,---,0.00,VWS V14.01,2013-07-26 07:47:00,
2013-07-26 03:48:00,60.9,59.8,30.02,NE,36,0.0,0.0,96,0.00,,---,0.00,VWS V14.01,2013-07-26 07:48:00,
2013-07-26 03:50:00,60.9,59.8,30.02,NE,36,0.0,0.0,96,0.00,,---,0.00,VWS V14.01,2013-07-26 07:50:00,
2013-07-26 03:53:00,60.9,59.8,30.02,NE,36,0.0,0.0,96,0.00,,---,0.00,VWS V14.01,2013-07-26 07:53:00,
2013-07-26 03:54:00,60.8,59.7,30.02,NE,36,0.0,0.0,96,0.00,,---,0.00,VWS V14.01,2013-07-26 07:54:00,
2013-07-26 03:56:00,60.8,59.7,30.02,NE,36,0.0,0.0,96,0.00,,---,0.00,VWS V14.01,2013-07-26 07:56:00,
2013-07-26 03:58:00,60.9,59.8,30.02,NE,36,0.0,0.0,96,0.00,,---,0.00,VWS V14.01,2013-07-26 07:58:00,
2013-07-26 03:59:00,60.9,59.8,30.02,NE,36,0.0,0.0,96,0.00,,---,0.00,VWS V14.01,2013-07-26 07:59:00,
2013-07-26 04:00:00,60.9,59.8,30.03,NE,36,0.0,0.0,96,0.00,,---,0.00,VWS V14.01,2013-07-26 08:00:00,
2013-07-26 04:01:00,60.9,59.8,30.02,NE,36,0.0,0.0,96,0.00,,---,0.00,VWS V14.01,2013-07-26 08:01:00,
2013-07-26 04:03:00,61.0,59.9,30.03,NE,36,0.0,0.0,96,0.00,,---,0.00,VWS V14.01,2013-07-26 08:03:00,
2013-07-26 04:04:00,61.0,59.9,30.03,NE,36,0.0,0.0,96,0.00,,---,0.00,VWS V14.01,2013-07-26 08:04:00,
2013-07-26 04:05:00,61.0,59.9,30.03,NE,36,0.0,0.0,96,0.00,,---,0.00,VWS V14.01,2013-07-26 08:05:00,
2013-07-26 04:06:00,61.1,60.0,30.03,NE,36,0.0,0.0,96,0.00,,---,0.00,VWS V14.01,2013-07-26 08:06:00,
2013-07-26 04:09:00,61.0,59.9,30.03,NE,36,0.0,0.0,96,0.00,,---,0.00,VWS V14.01,2013-07-26 08:09:00,
2013-07-26 04:10:00,61.0,59.9,30.03,NE,36,0.0,0.0,96,0.00,,---,0.00,VWS V14.01,2013-07-26 08:10:00,
2013-07-26 04:11:00,60.9,59.8,30.03,NE,36,0.0,0.0,96,0.00,,---,0.00,VWS V14.01,2013-07-26 08:11:00,
2013-07-26 04:14:00,60.9,59.8,30.03,NE,36,0.0,0.0,96,0.00,,---,0.00,VWS V14.01,2013-07-26 08:14:00,
2013-07-26 04:15:00,60.9,59.8,30.02,NE,36,0.0,0.0,96,0.00,,---,0.00,VWS V14.01,2013-07-26 08:15:00,
2013-07-26 04:16:00,60.9,59.8,30.03,NE,36,0.0,0.0,96,0.00,,---,0.00,VWS V14.01,2013-07-26 08:16:00,
2013-07-26 04:20:00,61.0,59.9,30.02,NE,36,0.0,0.0,96,0.00,,---,0.00,VWS V14.01,2013-07-26 08:20:00,
2013-07-26 04:21:00,61.1,60.0,30.02,NE,36,0.0,0.0,96,0.00,,---,0.00,VWS V14.01,2013-07-26 08:21:00,
2013-07-26 04:22:00,61.2,60.0,30.03,NE,36,0.0,0.0,96,0.00,,---,0.00,VWS V14.01,2013-07-26 08:22:00,
2013-07-26 04:25:00,61.3,60.2,30.03,NE,36,0.0,0.0,96,0.00,,---,0.00,VWS V14.01,2013-07-26 08:25:00,
2013-07-26 04:27:00,61.4,60.0,30.03,NE,36,0.0,0.0,95,0.00,,---,0.00,VWS V14.01,2013-07-26 08:27:00,
2013-07-26 04:28:00,61.4,60.0,30.03,NE,36,0.0,0.0,95,0.00,,---,0.00,VWS V14.01,2013-07-26 08:28:00,
2013-07-26 04:30:00,61.5,60.1,30.03,NE,36,0.0,0.0,95,0.00,,---,0.00,VWS V14.01,2013-07-26 08:30:00,
2013-07-26 04:32:00,61.5,60.1,30.02,NE,36,0.0,0.0,95,0.00,,---,0.00,VWS V14.01,2013-07-26 08:32:00,
2013-07-26 04:33:00,61.6,59.9,30.03,NE,36,0.0,0.0,94,0.00,,---,0.00,VWS V14.01,2013-07-26 08:33:00,
2013-07-26 04:35:00,61.6,59.9,30.03,NE,36,0.0,0.0,94,0.00,,---,0.00,VWS V14.01,2013-07-26 08:35:00,
2013-07-26 04:36:00,61.6,59.9,30.03,NE,36,0.0,0.0,94,0.00,,---,0.00,VWS V14.01,2013-07-26 08:36:00,
2013-07-26 04:37:00,61.6,59.9,30.03,NE,36,0.0,0.0,94,0.00,,---,0.00,VWS V14.01,2013-07-26 08:37:00,
2013-07-26 04:38:00,61.6,59.9,30.03,NE,36,0.0,0.0,94,0.00,,---,0.00,VWS V14.01,2013-07-26 08:38:00,
2013-07-26 04:39:00,61.6,59.9,30.03,NE,36,0.0,0.0,94,0.00,,---,0.00,VWS V14.01,2013-07-26 08:39:00,
2013-07-26 04:40:00,61.7,60.0,30.03,NE,36,0.0,0.0,94,0.00,,---,0.00,VWS V14.01,2013-07-26 08:40:00,
2013-07-26 04:41:00,61.7,60.0,30.03,NE,36,0.0,0.0,94,0.00,,---,0.00,VWS V14.01,2013-07-26 08:41:00,
2013-07-26 04:42:00,61.7,60.0,30.03,NE,36,0.0,0.0,94,0.00,,---,0.00,VWS V14.01,2013-07-26 08:42:00,
2013-07-26 04:44:00,61.7,60.0,30.03,NE,36,0.0,0.0,94,0.00,,---,0.00,VWS V14.01,2013-07-26 08:44:00,
2013-07-26 04:47:00,61.7,60.0,30.03,NE,36,0.0,0.0,94,0.00,,---,0.00,VWS V14.01,2013-07-26 08:47:00,
2013-07-26 04:48:00,61.7,60.0,30.03,NE,36,0.0,0.0,94,0.00,,---,0.00,VWS V14.01,2013-07-26 08:48:00,
2013-07-26 04:49:00,61.6,59.9,30.03,NE,36,0.0,0.0,94,0.00,,---,0.00,VWS V14.01,2013-07-26 08:49:00,
2013-07-26 04:50:00,61.6,59.9,30.03,NE,36,0.0,0.0,94,0.00,,---,0.00,VWS V14.01,2013-07-26 08:50:00,
2013-07-26 04:52:00,61.6,59.9,30.03,NE,36,0.0,0.0,94,0.00,,---,0.00,VWS V14.01,2013-07-26 08:52:00,
2013-07-26 04:54:00,61.5,59.8,30.03,NE,36,0.0,0.0,94,0.00,,---,0.00,VWS V14.01,2013-07-26 08:54:00,
2013-07-26 04:55:00,61.4,59.7,30.03,NE,36,0.0,0.0,94,0.00,,---,0.00,VWS V14.01,2013-07-26 08:55:00,
2013-07-26 04:57:00,61.3,59.6,30.03,NE,36,0.0,0.0,94,0.00,,---,0.00,VWS V14.01,2013-07-26 08:57:00,
2013-07-26 04:59:00,61.3,59.6,30.03,NE,36,0.0,0.0,94,0.00,,---,0.00,VWS V14.01,2013-07-26 08:59:00,
2013-07-26 05:00:00,61.2,59.5,30.03,NE,36,0.0,0.0,94,0.00,,---,0.00,VWS V14.01,2013-07-26 09:00:00,
2013-07-26 05:02:00,61.2,59.8,30.03,NE,36,0.0,0.0,95,0.00,,---,0.00,VWS V14.01,2013-07-26 09:02:00,
2013-07-26 05:03:00,61.2,59.8,30.03,NE,36,0.0,0.0,95,0.00,,---,0.00,VWS V14.01,2013-07-26 09:03:00,
2013-07-26 05:04:00,61.1,59.7,30.03,NE,36,0.0,0.0,95,0.00,,---,0.00,VWS V14.01,2013-07-26 09:04:00,
2013-07-26 05:06:00,61.1,59.7,30.03,NE,36,0.0,0.0,95,0.00,,---,0.00,VWS V14.01,2013-07-26 09:06:00,
2013-07-26 05:07:00,61.1,59.7,30.03,NE,36,0.0,0.0,95,0.00,,---,0.00,VWS V14.01,2013-07-26 09:07:00,
2013-07-26 05:09:00,61.1,59.7,30.03,NE,36,0.0,0.0,95,0.00,,---,0.00,VWS V14.01,2013-07-26 09:09:00,
2013-07-26 05:10:00,61.0,59.6,30.03,NE,36,0.0,0.0,95,0.00,,---,0.00,VWS V14.01,2013-07-26 09:10:00,
2013-07-26 05:11:00,61.0,59.6,30.03,NE,36,0.0,0.0,95,0.00,,---,0.00,VWS V14.01,2013-07-26 09:11:00,
2013-07-26 05:13:00,61.0,59.6,30.03,NE,36,0.0,0.0,95,0.00,,---,0.00,VWS V14.01,2013-07-26 09:13:00,
2013-07-26 05:14:00,61.0,59.6,30.03,NE,36,0.0,0.0,95,0.00,,---,0.00,VWS V14.01,2013-07-26 09:14:00,
2013-07-26 05:15:00,61.0,59.6,30.03,NE,36,0.0,0.0,95,0.00,,---,0.00,VWS V14.01,2013-07-26 09:15:00,
2013-07-26 05:16:00,61.0,59.6,30.03,NE,36,0.0,0.0,95,0.00,,---,0.00,VWS V14.01,2013-07-26 09:16:00,
2013-07-26 05:19:00,60.9,59.5,30.03,NE,36,0.0,0.0,95,0.00,,---,0.00,VWS V14.01,2013-07-26 09:19:00,
2013-07-26 05:20:00,61.0,59.6,30.03,NE,36,0.0,0.0,95,0.00,,---,0.00,VWS V14.01,2013-07-26 09:20:00,
2013-07-26 05:22:00,61.0,59.6,30.03,NE,36,0.0,0.0,95,0.00,,---,0.00,VWS V14.01,2013-07-26 09:22:00,
2013-07-26 05:24:00,61.0,59.6,30.03,NE,36,0.0,0.0,95,0.00,,---,0.00,VWS V14.01,2013-07-26 09:24:00,
2013-07-26 05:25:00,60.9,59.5,30.03,NE,36,0.0,0.0,95,0.00,,---,0.00,VWS V14.01,2013-07-26 09:25:00,
2013-07-26 05:26:00,60.9,59.5,30.03,NE,36,0.0,0.0,95,0.00,,---,0.00,VWS V14.01,2013-07-26 09:26:00,
2013-07-26 05:27:00,60.9,59.5,30.03,NE,36,0.0,0.0,95,0.00,,---,0.00,VWS V14.01,2013-07-26 09:27:00,
2013-07-26 05:29:00,60.9,59.5,30.03,NE,36,0.0,0.0,95,0.00,,---,0.00,VWS V14.01,2013-07-26 09:29:00,
2013-07-26 05:31:00,60.9,59.5,30.03,NE,36,0.0,0.0,95,0.00,,---,0.00,VWS V14.01,2013-07-26 09:31:00,
2013-07-26 05:32:00,60.8,59.4,30.03,NE,36,0.0,0.0,95,0.00,,---,0.00,VWS V14.01,2013-07-26 09:32:00,
2013-07-26 05:34:00,60.8,59.4,30.03,NE,36,0.0,0.0,95,0.00,,---,0.00,VWS V14.01,2013-07-26 09:34:00,
2013-07-26 05:36:00,60.8,59.4,30.03,NE,36,0.0,0.0,95,0.00,,---,0.00,VWS V14.01,2013-07-26 09:36:00,
2013-07-26 05:37:00,60.8,59.4,30.03,NE,36,0.0,0.0,95,0.00,,---,0.00,VWS V14.01,2013-07-26 09:37:00,
2013-07-26 05:39:00,60.8,59.4,30.03,NE,36,0.0,0.0,95,0.00,,---,0.00,VWS V14.01,2013-07-26 09:39:00,
2013-07-26 05:41:00,60.8,59.4,30.03,NE,36,0.0,0.0,95,0.00,,---,0.00,VWS V14.01,2013-07-26 09:41:00,
2013-07-26 05:42:00,60.8,59.4,30.03,NE,36,0.0,0.0,95,0.00,,---,0.00,VWS V14.01,2013-07-26 09:42:00,
2013-07-26 05:43:00,60.7,59.3,30.03,NE,36,0.0,0.0,95,0.00,,---,0.00,VWS V14.01,2013-07-26 09:43:00,
2013-07-26 05:44:00,60.7,59.3,30.03,NE,36,0.0,0.0,95,0.00,,---,0.00,VWS V14.01,2013-07-26 09:44:00,
2013-07-26 05:47:00,60.6,59.2,30.03,NE,36,0.0,0.0,95,0.00,,---,0.00,VWS V14.01,2013-07-26 09:47:00,
2013-07-26 05:48:00,60.5,59.1,30.03,NE,36,0.0,0.0,95,0.00,,---,0.00,VWS V14.01,2013-07-26 09:48:00,
2013-07-26 05:50:00,60.5,59.1,30.03,NE,36,0.0,0.0,95,0.00,,---,0.00,VWS V14.01,2013-07-26 09:50:00,
2013-07-26 05:52:00,60.5,59.1,30.03,NE,36,0.0,0.0,95,0.00,,---,0.00,VWS V14.01,2013-07-26 09:52:00,
2013-07-26 05:53:00,60.6,59.2,30.03,NE,36,0.0,0.0,95,0.00,,---,0.00,VWS V14.01,2013-07-26 09:53:00,
2013-07-26 05:55:00,60.5,58.8,30.04,NE,36,0.0,0.0,94,0.00,,---,0.00,VWS V14.01,2013-07-26 09:55:00,
2013-07-26 05:57:00,60.5,59.1,30.04,NE,36,0.0,0.0,95,0.00,,---,0.00,VWS V14.01,2013-07-26 09:57:00,
2013-07-26 05:58:00,60.5,59.1,30.04,NE,36,0.0,0.0,95,0.00,,---,0.00,VWS V14.01,2013-07-26 09:58:00,
2013-07-26 05:59:00,60.5,59.1,30.04,NE,36,0.0,0.0,95,0.00,,---,0.00,VWS V14.01,2013-07-26 09:59:00,
2013-07-26 06:00:00,60.5,59.1,30.04,NE,36,0.0,0.0,95,0.00,,---,0.00,VWS V14.01,2013-07-26 10:00:00,
2013-07-26 06:02:00,60.5,58.8,30.04,NE,36,0.0,0.0,94,0.00,,---,0.00,VWS V14.01,2013-07-26 10:02:00,
2013-07-26 06:03:00,60.6,58.9,30.03,NE,36,0.0,0.0,94,0.00,,---,0.00,VWS V14.01,2013-07-26 10:03:00,
2013-07-26 06:04:00,60.6,58.9,30.04,NE,36,0.0,0.0,94,0.00,,---,0.00,VWS V14.01,2013-07-26 10:04:00,
2013-07-26 06:06:00,60.7,59.0,30.04,NE,36,0.0,0.0,94,0.00,,---,0.00,VWS V14.01,2013-07-26 10:06:00,
2013-07-26 06:07:00,60.7,59.0,30.04,NE,36,0.0,0.0,94,0.00,,---,0.00,VWS V14.01,2013-07-26 10:07:00,
2013-07-26 06:08:00,60.7,59.0,30.04,NE,36,0.0,0.0,94,0.00,,---,0.00,VWS V14.01,2013-07-26 10:08:00,
2013-07-26 06:09:00,60.6,58.9,30.04,NE,36,0.0,0.0,94,0.00,,---,0.00,VWS V14.01,2013-07-26 10:09:00,
2013-07-26 06:11:00,60.5,58.8,30.04,NE,36,0.0,0.0,94,0.00,,---,0.00,VWS V14.01,2013-07-26 10:11:00,
2013-07-26 06:12:00,60.4,58.7,30.04,NE,36,0.0,0.0,94,0.00,,---,0.00,VWS V14.01,2013-07-26 10:12:00,
2013-07-26 06:13:00,60.4,58.7,30.04,NE,36,0.0,0.0,94,0.00,,---,0.00,VWS V14.01,2013-07-26 10:13:00,
2013-07-26 06:14:00,60.4,58.7,30.04,NE,36,0.0,0.0,94,0.00,,---,0.00,VWS V14.01,2013-07-26 10:14:00,
2013-07-26 06:15:00,60.4,58.7,30.04,NE,36,0.0,0.0,94,0.00,,---,0.00,VWS V14.01,2013-07-26 10:15:00,
2013-07-26 06:17:00,60.4,58.7,30.04,NE,36,0.0,0.0,94,0.00,,---,0.00,VWS V14.01,2013-07-26 10:17:00,
2013-07-26 06:19:00,60.5,58.8,30.04,NE,36,0.0,0.0,94,0.00,,---,0.00,VWS V14.01,2013-07-26 10:19:00,
2013-07-26 06:20:00,60.5,58.8,30.04,NE,36,0.0,0.0,94,0.00,,---,0.00,VWS V14.01,2013-07-26 10:20:00,
2013-07-26 06:22:00,60.5,58.8,30.04,NE,36,0.0,0.0,94,0.00,,---,0.00,VWS V14.01,2013-07-26 10:22:00,
2013-07-26 06:23:00,60.5,58.8,30.04,NE,36,0.0,0.0,94,0.00,,---,0.00,VWS V14.01,2013-07-26 10:23:00,
2013-07-26 06:24:00,60.6,58.9,30.04,NE,36,0.0,0.0,94,0.00,,---,0.00,VWS V14.01,2013-07-26 10:24:00,
2013-07-26 06:25:00,60.6,58.9,30.04,NE,36,0.0,0.0,94,0.00,,---,0.00,VWS V14.01,2013-07-26 10:25:00,
2013-07-26 06:27:00,60.6,58.9,30.04,NE,36,0.0,0.0,94,0.00,,---,0.00,VWS V14.01,2013-07-26 10:27:00,
2013-07-26 06:28:00,60.5,58.8,30.04,NE,36,0.0,0.0,94,0.00,,---,0.00,VWS V14.01,2013-07-26 10:28:00,
2013-07-26 06:30:00,60.5,58.8,30.05,NE,36,0.0,0.0,94,0.00,,---,0.00,VWS V14.01,2013-07-26 10:30:00,
2013-07-26 06:32:00,60.6,58.9,30.05,NE,36,0.0,0.0,94,0.00,,---,0.00,VWS V14.01,2013-07-26 10:32:00,
2013-07-26 06:33:00,60.7,59.0,30.05,NE,36,0.0,0.0,94,0.00,,---,0.00,VWS V14.01,2013-07-26 10:33:00,
2013-07-26 06:34:00,60.6,58.9,30.05,NE,36,0.0,0.0,94,0.00,,---,0.00,VWS V14.01,2013-07-26 10:34:00,
2013-07-26 06:35:00,60.7,59.0,30.05,NE,36,0.0,0.0,94,0.00,,---,0.00,VWS V14.01,2013-07-26 10:35:00,
2013-07-26 06:37:00,60.7,59.0,30.05,NE,36,0.0,0.0,94,0.00,,---,0.00,VWS V14.01,2013-07-26 10:37:00,
2013-07-26 06:38:00,60.8,59.1,30.05,NE,36,0.0,0.0,94,0.00,,---,0.00,VWS V14.01,2013-07-26 10:38:00,
2013-07-26 06:39:00,60.9,59.2,30.05,NE,36,0.0,0.0,94,0.00,,---,0.00,VWS V14.01,2013-07-26 10:39:00,
2013-07-26 06:40:00,60.9,59.2,30.05,NE,36,0.0,0.0,94,0.00,,---,0.00,VWS V14.01,2013-07-26 10:40:00,
2013-07-26 06:42:00,61.0,59.3,30.05,NE,36,0.0,0.0,94,0.00,,---,0.00,VWS V14.01,2013-07-26 10:42:00,
2013-07-26 06:43:00,61.0,59.0,30.05,NE,36,0.0,0.0,93,0.00,,---,0.00,VWS V14.01,2013-07-26 10:43:00,
2013-07-26 06:44:00,61.0,59.0,30.05,NE,36,0.0,0.0,93,0.00,,---,0.00,VWS V14.01,2013-07-26 10:44:00,
2013-07-26 06:46:00,61.0,59.0,30.05,NE,36,0.0,0.0,93,0.00,,---,0.00,VWS V14.01,2013-07-26 10:46:00,
2013-07-26 06:48:00,61.0,59.0,30.05,NE,36,0.0,0.0,93,0.00,,---,0.00,VWS V14.01,2013-07-26 10:48:00,
2013-07-26 06:49:00,61.0,59.0,30.05,NE,36,0.0,0.0,93,0.00,,---,0.00,VWS V14.01,2013-07-26 10:49:00,
2013-07-26 06:51:00,61.1,59.1,30.05,NE,36,0.0,0.0,93,0.00,,---,0.00,VWS V14.01,2013-07-26 10:51:00,
2013-07-26 06:53:00,61.2,59.2,30.05,NE,36,0.0,0.0,93,0.00,,---,0.00,VWS V14.01,2013-07-26 10:53:00,
2013-07-26 06:54:00,61.2,59.5,30.05,NE,36,0.0,0.0,94,0.00,,---,0.00,VWS V14.01,2013-07-26 10:54:00,
2013-07-26 06:55:00,61.2,59.5,30.05,NE,36,0.0,0.0,94,0.00,,---,0.00,VWS V14.01,2013-07-26 10:55:00,
2013-07-26 06:56:00,61.3,59.3,30.05,NE,36,0.0,0.0,93,0.00,,---,0.00,VWS V14.01,2013-07-26 10:56:00,
2013-07-26 06:59:00,61.4,59.4,30.05,NE,36,0.0,0.0,93,0.00,,---,0.00,VWS V14.01,2013-07-26 10:59:00,
2013-07-26 07:01:00,61.4,59.4,30.05,NE,36,0.0,0.0,93,0.00,,---,0.00,VWS V14.01,2013-07-26 11:01:00,
2013-07-26 07:02:00,61.5,59.5,30.05,NE,36,0.0,0.0,93,0.00,,---,0.00,VWS V14.01,2013-07-26 11:02:00,
2013-07-26 07:04:00,61.5,59.5,30.05,NE,36,0.0,0.0,93,0.00,,---,0.00,VWS V14.01,2013-07-26 11:04:00,
2013-07-26 07:05:00,61.5,59.5,30.05,NE,36,0.0,0.0,93,0.00,,---,0.00,VWS V14.01,2013-07-26 11:05:00,
2013-07-26 07:06:00,61.6,59.6,30.05,NE,36,0.0,0.0,93,0.00,,---,0.00,VWS V14.01,2013-07-26 11:06:00,
2013-07-26 07:07:00,61.6,59.6,30.06,NE,36,0.0,0.0,93,0.00,,---,0.00,VWS V14.01,2013-07-26 11:07:00,
2013-07-26 07:09:00,61.7,59.7,30.05,NE,36,0.0,0.0,93,0.00,,---,0.00,VWS V14.01,2013-07-26 11:09:00,
2013-07-26 07:10:00,61.8,59.8,30.05,NE,36,0.0,0.0,93,0.00,,---,0.00,VWS V14.01,2013-07-26 11:10:00,
2013-07-26 07:11:00,61.9,59.9,30.05,NE,36,0.0,0.0,93,0.00,,---,0.00,VWS V14.01,2013-07-26 11:11:00,
2013-07-26 07:12:00,61.9,59.9,30.05,NE,36,0.0,0.0,93,0.00,,---,0.00,VWS V14.01,2013-07-26 11:12:00,
2013-07-26 07:14:00,62.0,59.7,30.05,NE,36,0.0,0.0,92,0.00,,---,0.00,VWS V14.01,2013-07-26 11:14:00,
2013-07-26 07:15:00,62.1,59.8,30.05,NE,36,0.0,0.0,92,0.00,,---,0.00,VWS V14.01,2013-07-26 11:15:00,
2013-07-26 07:16:00,62.1,59.8,30.05,NE,36,0.0,0.0,92,0.00,,---,0.00,VWS V14.01,2013-07-26 11:16:00,
2013-07-26 07:17:00,62.2,59.8,30.05,NE,36,0.0,0.0,92,0.00,,---,0.00,VWS V14.01,2013-07-26 11:17:00,
2013-07-26 07:20:00,62.3,60.0,30.05,NE,36,0.0,0.0,92,0.00,,---,0.00,VWS V14.01,2013-07-26 11:20:00,
2013-07-26 07:21:00,62.3,60.0,30.05,NE,36,0.0,0.0,92,0.00,,---,0.00,VWS V14.01,2013-07-26 11:21:00,
2013-07-26 07:22:00,62.4,60.0,30.06,NE,36,0.0,0.0,92,0.00,,---,0.00,VWS V14.01,2013-07-26 11:22:00,
2013-07-26 07:23:00,62.4,59.7,30.06,NE,36,0.0,0.0,91,0.00,,---,0.00,VWS V14.01,2013-07-26 11:23:00,
2013-07-26 07:27:00,62.5,59.8,30.05,NE,36,0.0,0.0,91,0.00,,---,0.00,VWS V14.01,2013-07-26 11:27:00,
2013-07-26 07:28:00,62.6,59.9,30.06,NE,36,0.0,0.0,91,0.00,,---,0.00,VWS V14.01,2013-07-26 11:28:00,
2013-07-26 07:29:00,62.6,59.9,30.06,NE,36,0.0,0.0,91,0.00,,---,0.00,VWS V14.01,2013-07-26 11:29:00,
2013-07-26 07:32:00,62.7,60.0,30.05,NE,36,0.0,0.0,91,0.00,,---,0.00,VWS V14.01,2013-07-26 11:32:00,
2013-07-26 07:33:00,62.7,60.0,30.06,NE,36,0.0,0.0,91,0.00,,---,0.00,VWS V14.01,2013-07-26 11:33:00,
2013-07-26 07:34:00,62.7,60.0,30.06,NE,36,0.0,0.0,91,0.00,,---,0.00,VWS V14.01,2013-07-26 11:34:00,
2013-07-26 07:37:00,62.8,60.1,30.05,NE,36,0.0,0.0,91,0.00,,---,0.00,VWS V14.01,2013-07-26 11:37:00,
2013-07-26 07:38:00,62.8,60.1,30.06,NE,36,0.0,0.0,91,0.00,,---,0.00,VWS V14.01,2013-07-26 11:38:00,
2013-07-26 07:40:00,62.8,60.1,30.06,NE,36,0.0,0.0,91,0.00,,---,0.00,VWS V14.01,2013-07-26 11:40:00,
2013-07-26 07:42:00,62.8,60.1,30.06,NE,36,0.0,0.0,91,0.00,,---,0.00,VWS V14.01,2013-07-26 11:42:00,
2013-07-26 07:43:00,62.9,60.2,30.06,NE,36,0.0,0.0,91,0.00,,---,0.00,VWS V14.01,2013-07-26 11:43:00,
2013-07-26 07:44:00,62.9,60.2,30.06,NE,36,0.0,0.0,91,0.00,,---,0.00,VWS V14.01,2013-07-26 11:44:00,
2013-07-26 07:45:00,62.9,60.2,30.06,NE,36,0.0,0.0,91,0.00,,---,0.00,VWS V14.01,2013-07-26 11:45:00,
2013-07-26 07:46:00,62.9,60.2,30.06,NE,36,0.0,0.0,91,0.00,,---,0.00,VWS V14.01,2013-07-26 11:46:00,
2013-07-26 07:48:00,63.1,60.4,30.06,NE,36,0.0,0.0,91,0.00,,---,0.00,VWS V14.01,2013-07-26 11:48:00,
2013-07-26 07:49:00,63.1,60.4,30.06,NE,36,0.0,0.0,91,0.00,,---,0.00,VWS V14.01,2013-07-26 11:49:00,
2013-07-26 07:50:00,63.3,60.6,30.06,NE,36,0.0,0.0,91,0.00,,---,0.00,VWS V14.01,2013-07-26 11:50:00,
2013-07-26 07:51:00,63.3,60.6,30.06,NE,36,0.0,0.0,91,0.00,,---,0.00,VWS V14.01,2013-07-26 11:51:00,
2013-07-26 07:53:00,63.5,60.8,30.06,NE,36,0.0,0.0,91,0.00,,---,0.00,VWS V14.01,2013-07-26 11:53:00,
2013-07-26 07:54:00,63.5,60.5,30.06,NE,36,0.0,0.0,90,0.00,,---,0.00,VWS V14.01,2013-07-26 11:54:00,
2013-07-26 07:55:00,63.5,60.5,30.06,NE,36,0.0,0.0,90,0.00,,---,0.00,VWS V14.01,2013-07-26 11:55:00,
2013-07-26 07:56:00,63.5,60.5,30.06,NE,36,0.0,0.0,90,0.00,,---,0.00,VWS V14.01,2013-07-26 11:56:00,
2013-07-26 07:58:00,63.6,60.9,30.06,NE,36,0.0,0.0,91,0.00,,---,0.00,VWS V14.01,2013-07-26 11:58:00,
2013-07-26 07:59:00,63.6,60.9,30.06,NE,36,0.0,0.0,91,0.00,,---,0.00,VWS V14.01,2013-07-26 11:59:00,
2013-07-26 08:00:00,63.6,60.9,30.07,NE,36,0.0,0.0,91,0.00,,---,0.00,VWS V14.01,2013-07-26 12:00:00,
2013-07-26 08:01:00,63.6,60.9,30.07,NE,36,0.0,0.0,91,0.00,,---,0.00,VWS V14.01,2013-07-26 12:01:00,
2013-07-26 08:03:00,63.7,60.7,30.07,NE,36,0.0,0.0,90,0.00,,---,0.00,VWS V14.01,2013-07-26 12:03:00,
2013-07-26 08:04:00,63.7,60.7,30.07,NE,36,0.0,0.0,90,0.00,,---,0.00,VWS V14.01,2013-07-26 12:04:00,
2013-07-26 08:05:00,63.7,60.7,30.07,NE,36,0.0,0.0,90,0.00,,---,0.00,VWS V14.01,2013-07-26 12:05:00,
2013-07-26 08:06:00,63.7,60.7,30.07,NE,36,0.0,0.0,90,0.00,,---,0.00,VWS V14.01,2013-07-26 12:06:00,
2013-07-26 08:09:00,63.9,60.9,30.07,NE,36,0.0,0.0,90,0.00,,---,0.00,VWS V14.01,2013-07-26 12:09:00,
2013-07-26 08:11:00,64.0,61.0,30.07,NE,36,0.0,0.0,90,0.00,,---,0.00,VWS V14.01,2013-07-26 12:11:00,
2013-07-26 08:14:00,64.1,61.1,30.07,NE,36,0.0,0.0,90,0.00,,---,0.00,VWS V14.01,2013-07-26 12:14:00,
2013-07-26 08:16:00,64.2,61.2,30.07,NE,36,0.0,0.0,90,0.00,,---,0.00,VWS V14.01,2013-07-26 12:16:00,
2013-07-26 08:17:00,64.2,61.2,30.07,NE,36,0.0,0.0,90,0.00,,---,0.00,VWS V14.01,2013-07-26 12:17:00,
2013-07-26 08:19:00,64.4,61.4,30.07,NE,36,0.0,0.0,90,0.00,,---,0.00,VWS V14.01,2013-07-26 12:19:00,
2013-07-26 08:21:00,64.5,61.2,30.07,NE,36,0.0,0.0,89,0.00,,---,0.00,VWS V14.01,2013-07-26 12:21:00,
2013-07-26 08:22:00,64.5,61.2,30.07,NE,36,0.0,0.0,89,0.00,,---,0.00,VWS V14.01,2013-07-26 12:22:00,
2013-07-26 08:23:00,64.6,61.3,30.07,NE,36,0.0,0.0,89,0.00,,---,0.00,VWS V14.01,2013-07-26 12:23:00,
2013-07-26 08:24:00,64.7,61.4,30.07,NE,36,0.0,0.0,89,0.00,,---,0.00,VWS V14.01,2013-07-26 12:24:00,
2013-07-26 08:26:00,64.9,61.6,30.08,NE,36,0.0,0.0,89,0.00,,---,0.00,VWS V14.01,2013-07-26 12:26:00,
2013-07-26 08:27:00,64.9,61.6,30.08,NE,36,0.0,0.0,89,0.00,,---,0.00,VWS V14.01,2013-07-26 12:27:00,
2013-07-26 08:28:00,64.9,61.6,30.08,NE,36,0.0,0.0,89,0.00,,---,0.00,VWS V14.01,2013-07-26 12:28:00,
2013-07-26 08:30:00,65.1,61.5,30.08,NE,36,0.0,0.0,88,0.00,,---,0.00,VWS V14.01,2013-07-26 12:30:00,
2013-07-26 08:32:00,65.1,61.1,30.08,NE,36,0.0,0.0,87,0.00,,---,0.00,VWS V14.01,2013-07-26 12:32:00,
2013-07-26 08:33:00,65.2,61.2,30.08,NE,36,0.0,0.0,87,0.00,,---,0.00,VWS V14.01,2013-07-26 12:33:00,
2013-07-26 08:35:00,65.5,61.9,30.08,North,11,0.0,2.0,88,0.00,,---,0.00,VWS V14.01,2013-07-26 12:35:00,
2013-07-26 08:38:00,66.1,62.1,30.08,North,10,0.0,2.0,87,0.00,,---,0.00,VWS V14.01,2013-07-26 12:38:00,
2013-07-26 08:39:00,66.2,61.9,30.08,North,10,0.0,2.0,86,0.00,,---,0.00,VWS V14.01,2013-07-26 12:39:00,
2013-07-26 08:42:00,66.4,62.1,30.08,North,11,0.0,2.0,86,0.00,,---,0.00,VWS V14.01,2013-07-26 12:42:00,
2013-07-26 08:43:00,66.5,61.5,30.08,North,10,0.0,2.0,84,0.00,,---,0.00,VWS V14.01,2013-07-26 12:43:00,
2013-07-26 08:44:00,66.4,61.4,30.08,North,11,0.0,2.0,84,0.00,,---,0.00,VWS V14.01,2013-07-26 12:44:00,
2013-07-26 08:48:00,66.4,61.8,30.08,NW,325,0.0,4.0,85,0.00,,---,0.00,VWS V14.01,2013-07-26 12:48:00,
2013-07-26 08:49:00,66.4,61.8,30.08,NW,325,0.0,4.0,85,0.00,,---,0.00,VWS V14.01,2013-07-26 12:49:00,
2013-07-26 08:53:00,66.3,61.3,30.08,NW,325,0.0,4.0,84,0.00,,---,0.00,VWS V14.01,2013-07-26 12:53:00,
2013-07-26 08:54:00,66.4,61.8,30.08,NW,325,0.0,4.0,85,0.00,,---,0.00,VWS V14.01,2013-07-26 12:54:00,
2013-07-26 08:55:00,66.6,62.0,30.08,NW,325,0.0,4.0,85,0.00,,---,0.00,VWS V14.01,2013-07-26 12:55:00,
2013-07-26 08:59:00,67.0,63.0,30.08,North,355,0.0,4.0,87,0.00,,---,0.00,VWS V14.01,2013-07-26 12:59:00,
2013-07-26 09:00:00,67.2,63.2,30.08,North,355,0.0,4.0,87,0.00,,---,0.00,VWS V14.01,2013-07-26 13:00:00,
2013-07-26 09:04:00,67.1,63.1,30.09,NNW,341,0.0,4.0,87,0.00,,---,0.00,VWS V14.01,2013-07-26 13:04:00,
2013-07-26 09:05:00,67.0,63.0,30.08,NNW,341,0.0,0.0,87,0.00,,---,0.00,VWS V14.01,2013-07-26 13:05:00,
2013-07-26 09:06:00,67.0,63.0,30.08,NNW,341,0.0,0.0,87,0.00,,---,0.00,VWS V14.01,2013-07-26 13:06:00,
2013-07-26 09:07:00,66.9,62.6,30.08,NNW,341,0.0,0.0,86,0.00,,---,0.00,VWS V14.01,2013-07-26 13:07:00,
2013-07-26 09:09:00,66.6,62.6,30.08,NNW,341,0.0,0.0,87,0.00,,---,0.00,VWS V14.01,2013-07-26 13:09:00,
2013-07-26 09:10:00,66.6,62.6,30.08,NNW,341,0.0,0.0,87,0.00,,---,0.00,VWS V14.01,2013-07-26 13:10:00,
2013-07-26 09:11:00,66.4,62.7,30.08,NNW,341,0.0,0.0,88,0.00,,---,0.00,VWS V14.01,2013-07-26 13:11:00,
2013-07-26 09:12:00,66.3,62.3,30.08,NNW,341,0.0,0.0,87,0.00,,---,0.00,VWS V14.01,2013-07-26 13:12:00,
2013-07-26 09:14:00,66.2,62.5,30.08,NNW,341,0.0,0.0,88,0.00,,---,0.00,VWS V14.01,2013-07-26 13:14:00,
2013-07-26 09:15:00,66.2,62.5,30.08,NNW,341,0.0,0.0,88,0.00,,---,0.00,VWS V14.01,2013-07-26 13:15:00,
2013-07-26 09:17:00,66.3,63.0,30.08,NNW,341,0.0,0.0,89,0.00,,---,0.00,VWS V14.01,2013-07-26 13:17:00,
2013-07-26 09:20:00,66.5,63.2,30.08,NNW,341,0.0,0.0,89,0.00,,---,0.00,VWS V14.01,2013-07-26 13:20:00,
2013-07-26 09:21:00,66.5,62.8,30.08,NNW,341,0.0,0.0,88,0.00,,---,0.00,VWS V14.01,2013-07-26 13:21:00,
2013-07-26 09:22:00,66.7,63.0,30.08,NNW,341,0.0,0.0,88,0.00,,---,0.00,VWS V14.01,2013-07-26 13:22:00,
2013-07-26 09:23:00,66.9,63.2,30.08,NNW,341,0.0,0.0,88,0.00,,---,0.00,VWS V14.01,2013-07-26 13:23:00,
2013-07-26 09:25:00,67.3,63.6,30.08,NNW,340,0.0,0.0,88,0.00,,---,0.00,VWS V14.01,2013-07-26 13:25:00,
2013-07-26 09:26:00,67.3,63.3,30.09,NNW,340,0.0,0.0,87,0.00,,---,0.00,VWS V14.01,2013-07-26 13:26:00,
2013-07-26 09:27:00,67.2,62.9,30.08,NNW,340,0.0,0.0,86,0.00,,---,0.00,VWS V14.01,2013-07-26 13:27:00,
2013-07-26 09:28:00,67.0,62.7,30.09,NNW,340,0.0,0.0,86,0.00,,---,0.00,VWS V14.01,2013-07-26 13:28:00,
2013-07-26 09:31:00,67.4,63.7,30.08,NNW,340,0.0,0.0,88,0.00,,---,0.00,VWS V14.01,2013-07-26 13:31:00,
2013-07-26 09:32:00,67.7,63.7,30.08,NNW,340,0.0,0.0,87,0.00,,---,0.00,VWS V14.01,2013-07-26 13:32:00,
2013-07-26 09:33:00,67.8,63.5,30.08,NNW,340,0.0,0.0,86,0.00,,---,0.00,VWS V14.01,2013-07-26 13:33:00,
2013-07-26 09:36:00,67.7,63.4,30.08,NNW,339,0.0,0.0,86,0.00,,---,0.00,VWS V14.01,2013-07-26 13:36:00,
2013-07-26 09:37:00,67.5,62.8,30.08,NNW,338,0.0,0.0,85,0.00,,---,0.00,VWS V14.01,2013-07-26 13:37:00,
2013-07-26 09:38:00,67.4,62.7,30.08,West,271,2.0,2.0,85,0.00,,---,0.00,VWS V14.01,2013-07-26 13:38:00,
2013-07-26 09:41:00,67.4,62.7,30.08,NW,313,0.0,2.0,85,0.00,,---,0.00,VWS V14.01,2013-07-26 13:41:00,
2013-07-26 09:42:00,67.4,63.1,30.08,NW,313,0.0,2.0,86,0.00,,---,0.00,VWS V14.01,2013-07-26 13:42:00,
2013-07-26 09:43:00,67.6,63.6,30.08,NW,313,0.0,2.0,87,0.00,,---,0.00,VWS V14.01,2013-07-26 13:43:00,
2013-07-26 09:44:00,67.8,63.5,30.08,NW,313,0.0,2.0,86,0.00,,---,0.00,VWS V14.01,2013-07-26 13:44:00,
2013-07-26 09:46:00,68.1,63.4,30.08,NW,312,0.0,2.0,85,0.00,,---,0.00,VWS V14.01,2013-07-26 13:46:00,
2013-07-26 09:48:00,68.0,63.3,30.08,NW,306,0.0,2.0,85,0.00,,---,0.00,VWS V14.01,2013-07-26 13:48:00,
2013-07-26 09:49:00,67.9,63.6,30.08,NW,306,0.0,2.0,86,0.00,,---,0.00,VWS V14.01,2013-07-26 13:49:00,
2013-07-26 09:52:00,68.4,63.7,30.08,NW,306,0.0,2.0,85,0.00,,---,0.00,VWS V14.01,2013-07-26 13:52:00,
2013-07-26 09:53:00,68.8,63.8,30.08,NW,306,0.0,2.0,84,0.00,,---,0.00,VWS V14.01,2013-07-26 13:53:00,
2013-07-26 09:54:00,69.2,63.8,30.08,NW,306,0.0,2.0,83,0.00,,---,0.00,VWS V14.01,2013-07-26 13:54:00,
2013-07-26 09:57:00,69.4,63.3,30.07,NW,306,0.0,2.0,81,0.00,,---,0.00,VWS V14.01,2013-07-26 13:57:00,
2013-07-26 09:58:00,69.5,64.1,30.07,NW,306,0.0,2.0,83,0.00,,---,0.00,VWS V14.01,2013-07-26 13:58:00,
2013-07-26 09:59:00,69.5,64.5,30.07,NW,306,0.0,2.0,84,0.00,,---,0.00,VWS V14.01,2013-07-26 13:59:00,
2013-07-26 10:00:00,69.5,63.8,30.07,NW,306,0.0,2.0,82,0.00,,---,0.00,VWS V14.01,2013-07-26 14:00:00,
2013-07-26 10:02:00,70.0,63.9,30.07,NW,306,0.0,2.0,81,0.00,,---,0.00,VWS V14.01,2013-07-26 14:02:00,
2013-07-26 10:04:00,69.8,63.0,30.07,NW,306,0.0,2.0,79,0.00,,---,0.00,VWS V14.01,2013-07-26 14:04:00,
2013-07-26 10:05:00,69.8,63.7,30.08,NW,306,0.0,0.0,81,0.00,,---,0.00,VWS V14.01,2013-07-26 14:05:00,
2013-07-26 10:06:00,69.7,63.3,30.08,NNW,327,0.0,1.0,80,0.00,,---,0.00,VWS V14.01,2013-07-26 14:06:00,
2013-07-26 10:08:00,69.4,63.0,30.08,NNW,327,0.0,1.0,80,0.00,,---,0.00,VWS V14.01,2013-07-26 14:08:00,
2013-07-26 10:09:00,69.3,63.2,30.08,NNW,327,0.0,1.0,81,0.00,,---,0.00,VWS V14.01,2013-07-26 14:09:00,
2013-07-26 10:10:00,69.1,62.7,30.08,NNW,327,0.0,1.0,80,0.00,,---,0.00,VWS V14.01,2013-07-26 14:10:00,
2013-07-26 10:11:00,69.1,63.0,30.08,NNW,327,0.0,1.0,81,0.00,,---,0.00,VWS V14.01,2013-07-26 14:11:00,
2013-07-26 10:12:00,69.3,62.5,30.08,North,350,2.0,5.0,79,0.00,,---,0.00,VWS V14.01,2013-07-26 14:12:00,
2013-07-26 10:14:00,69.4,62.2,30.08,North,355,0.0,5.0,78,0.00,,---,0.00,VWS V14.01,2013-07-26 14:14:00,
2013-07-26 10:15:00,69.5,61.2,30.08,North,355,0.0,5.0,75,0.00,,---,0.00,VWS V14.01,2013-07-26 14:15:00,
2013-07-26 10:16:00,69.5,61.2,30.07,North,355,0.0,5.0,75,0.00,,---,0.00,VWS V14.01,2013-07-26 14:16:00,
2013-07-26 10:17:00,69.7,62.2,30.07,North,355,0.0,5.0,77,0.00,,---,0.00,VWS V14.01,2013-07-26 14:17:00,
2013-07-26 10:19:00,70.0,62.5,30.07,NW,318,3.0,5.0,77,0.00,,---,0.00,VWS V14.01,2013-07-26 14:19:00,
2013-07-26 10:21:00,70.4,62.8,30.08,NW,321,0.0,5.0,77,0.00,,---,0.00,VWS V14.01,2013-07-26 14:21:00,
2013-07-26 10:23:00,70.6,62.7,30.07,NW,326,1.0,5.0,76,0.00,,---,0.00,VWS V14.01,2013-07-26 14:23:00,
2013-07-26 10:24:00,70.8,63.2,30.08,NNW,327,0.0,5.0,77,0.00,,---,0.00,VWS V14.01,2013-07-26 14:24:00,
2013-07-26 10:27:00,71.2,63.6,30.08,NNW,329,0.0,5.0,77,0.00,,---,0.00,VWS V14.01,2013-07-26 14:27:00,
2013-07-26 10:28:00,71.5,63.5,30.07,NNW,329,0.0,5.0,76,0.00,,---,0.00,VWS V14.01,2013-07-26 14:28:00,
2013-07-26 10:29:00,71.7,63.4,30.07,NNW,329,0.0,5.0,75,0.00,,---,0.00,VWS V14.01,2013-07-26 14:29:00,
2013-07-26 10:32:00,71.9,62.4,30.08,NNW,329,0.0,5.0,72,0.00,,---,0.00,VWS V14.01,2013-07-26 14:32:00,
2013-07-26 10:33:00,71.7,62.6,30.08,NNW,329,0.0,5.0,73,0.00,,---,0.00,VWS V14.01,2013-07-26 14:33:00,
2013-07-26 10:34:00,71.5,62.8,30.08,NNW,329,0.0,5.0,74,0.00,,---,0.00,VWS V14.01,2013-07-26 14:34:00,
2013-07-26 10:35:00,71.5,62.4,30.08,NNW,329,0.0,0.0,73,0.00,,---,0.00,VWS V14.01,2013-07-26 14:35:00,
2013-07-26 10:37:00,71.2,62.5,30.07,West,271,0.0,0.0,74,0.00,,---,0.00,VWS V14.01,2013-07-26 14:37:00,
2013-07-26 10:38:00,71.1,62.8,30.07,West,271,0.0,0.0,75,0.00,,---,0.00,VWS V14.01,2013-07-26 14:38:00,
2013-07-26 10:39:00,71.2,63.3,30.07,West,271,0.0,0.0,76,0.00,,---,0.00,VWS V14.01,2013-07-26 14:39:00,
2013-07-26 10:40:00,71.3,63.0,30.07,West,271,0.0,0.0,75,0.00,,---,0.00,VWS V14.01,2013-07-26 14:40:00,
2013-07-26 10:43:00,71.3,62.2,30.07,West,271,0.0,2.0,73,0.00,,---,0.00,VWS V14.01,2013-07-26 14:43:00,
2013-07-26 10:44:00,71.5,63.9,30.07,North,355,4.0,4.0,77,0.00,,---,0.00,VWS V14.01,2013-07-26 14:44:00,
2013-07-26 10:45:00,71.5,63.9,30.07,North,360,0.0,4.0,77,0.00,,---,0.00,VWS V14.01,2013-07-26 14:45:00,
2013-07-26 10:46:00,71.3,63.0,30.07,North,350,0.0,4.0,75,0.00,,---,0.00,VWS V14.01,2013-07-26 14:46:00,
2013-07-26 10:48:00,71.6,63.3,30.07,North,351,0.0,4.0,75,0.00,,---,0.00,VWS V14.01,2013-07-26 14:48:00,
2013-07-26 10:49:00,71.5,62.8,30.07,North,351,0.0,4.0,74,0.00,,---,0.00,VWS V14.01,2013-07-26 14:49:00,
2013-07-26 10:50:00,71.5,63.5,30.07,North,351,0.0,4.0,76,0.00,,---,0.00,VWS V14.01,2013-07-26 14:50:00,
2013-07-26 10:51:00,71.8,64.2,30.07,North,351,0.0,4.0,77,0.00,,---,0.00,VWS V14.01,2013-07-26 14:51:00,
2013-07-26 10:53:00,72.0,64.0,30.07,NNE,30,2.0,4.0,76,0.00,,---,0.00,VWS V14.01,2013-07-26 14:53:00,
2013-07-26 10:54:00,72.0,63.3,30.07,NNE,28,0.0,4.0,74,0.00,,---,0.00,VWS V14.01,2013-07-26 14:54:00,
2013-07-26 10:55:00,72.0,64.0,30.07,North,360,4.0,4.0,76,0.00,,---,0.00,VWS V14.01,2013-07-26 14:55:00,
2013-07-26 10:56:00,72.1,63.8,30.07,NNW,338,0.0,4.0,75,0.00,,---,0.00,VWS V14.01,2013-07-26 14:56:00,
2013-07-26 10:59:00,72.4,64.4,30.07,NNW,337,0.0,4.0,76,0.00,,---,0.00,VWS V14.01,2013-07-26 14:59:00,
2013-07-26 11:00:00,72.2,62.7,30.07,NNW,331,0.0,4.0,72,0.00,,---,0.00,VWS V14.01,2013-07-26 15:00:00,
2013-07-26 11:02:00,71.9,63.2,30.07,NNW,331,0.0,4.0,74,0.00,,---,0.00,VWS V14.01,2013-07-26 15:02:00,
2013-07-26 11:04:00,71.9,62.4,30.07,NNW,330,0.0,4.0,72,0.00,,---,0.00,VWS V14.01,2013-07-26 15:04:00,
2013-07-26 11:05:00,71.9,62.4,30.07,NNW,331,0.0,0.0,72,0.00,,---,0.00,VWS V14.01,2013-07-26 15:05:00,
2013-07-26 11:06:00,71.9,62.8,30.07,NNW,338,0.0,1.0,73,0.00,,---,0.00,VWS V14.01,2013-07-26 15:06:00,
2013-07-26 11:07:00,71.9,62.8,30.07,North,9,0.0,5.0,73,0.00,,---,0.00,VWS V14.01,2013-07-26 15:07:00,
2013-07-26 11:10:00,72.0,64.0,30.06,North,350,0.0,6.0,76,0.00,,---,0.00,VWS V14.01,2013-07-26 15:10:00,
2013-07-26 11:11:00,72.3,63.2,30.07,NNW,333,6.0,6.0,73,0.00,,---,0.00,VWS V14.01,2013-07-26 15:11:00,
2013-07-26 11:13:00,71.9,60.8,30.06,NNW,345,0.0,6.0,68,0.00,,---,0.00,VWS V14.01,2013-07-26 15:13:00,
2013-07-26 11:15:00,71.6,61.7,30.06,NNW,345,0.0,6.0,71,0.00,,---,0.00,VWS V14.01,2013-07-26 15:15:00,
2013-07-26 11:16:00,71.6,62.1,30.06,NW,309,2.0,6.0,72,0.00,,---,0.00,VWS V14.01,2013-07-26 15:16:00,
2013-07-26 11:17:00,71.5,62.0,30.06,NW,309,0.0,6.0,72,0.00,,---,0.00,VWS V14.01,2013-07-26 15:17:00,
2013-07-26 11:18:00,71.5,62.4,30.06,West,272,3.0,6.0,73,0.00,,---,0.00,VWS V14.01,2013-07-26 15:18:00,
2013-07-26 11:21:00,71.0,61.5,30.06,WNW,290,0.0,6.0,72,0.00,,---,0.00,VWS V14.01,2013-07-26 15:21:00,
2013-07-26 11:22:00,70.8,61.3,30.06,WNW,290,0.0,6.0,72,0.00,,---,0.00,VWS V14.01,2013-07-26 15:22:00,
2013-07-26 11:23:00,70.7,61.6,30.06,WNW,290,0.0,6.0,73,0.00,,---,0.00,VWS V14.01,2013-07-26 15:23:00,
2013-07-26 11:26:00,71.2,62.5,30.07,NW,326,0.0,6.0,74,0.00,,---,0.00,VWS V14.01,2013-07-26 15:26:00,
2013-07-26 11:27:00,71.3,62.6,30.06,NNW,329,0.0,6.0,74,0.00,,---,0.00,VWS V14.01,2013-07-26 15:27:00,
2013-07-26 11:28:00,71.4,63.1,30.07,NNW,329,0.0,6.0,75,0.00,,---,0.00,VWS V14.01,2013-07-26 15:28:00,
2013-07-26 11:31:00,71.5,63.2,30.07,NW,313,0.0,6.0,75,0.00,,---,0.00,VWS V14.01,2013-07-26 15:31:00,
2013-07-26 11:32:00,71.5,62.0,30.07,NW,313,0.0,6.0,72,0.00,,---,0.00,VWS V14.01,2013-07-26 15:32:00,
2013-07-26 11:33:00,71.5,62.8,30.06,NW,313,0.0,6.0,74,0.00,,---,0.00,VWS V14.01,2013-07-26 15:33:00,
2013-07-26 11:34:00,71.3,62.2,30.07,NW,318,0.0,6.0,73,0.00,,---,0.00,VWS V14.01,2013-07-26 15:34:00,
2013-07-26 11:37:00,70.8,62.1,30.07,NNE,12,0.0,4.0,74,0.00,,---,0.00,VWS V14.01,2013-07-26 15:37:00,
2013-07-26 11:38:00,70.7,62.4,30.07,NNW,332,0.0,4.0,75,0.00,,---,0.00,VWS V14.01,2013-07-26 15:38:00,
2013-07-26 11:39:00,70.8,61.7,30.07,NNW,333,0.0,4.0,73,0.00,,---,0.00,VWS V14.01,2013-07-26 15:39:00,
2013-07-26 11:42:00,71.8,63.1,30.06,WSW,237,0.0,4.0,74,0.00,,---,0.00,VWS V14.01,2013-07-26 15:42:00,
2013-07-26 11:43:00,71.8,62.3,30.06,WSW,237,0.0,4.0,72,0.00,,---,0.00,VWS V14.01,2013-07-26 15:43:00,
2013-07-26 11:44:00,72.0,62.5,30.07,WSW,237,0.0,4.0,72,0.00,,---,0.00,VWS V14.01,2013-07-26 15:44:00,
2013-07-26 11:45:00,72.7,63.5,30.06,WSW,237,0.0,4.0,73,0.00,,---,0.00,VWS V14.01,2013-07-26 15:45:00,
2013-07-26 11:48:00,73.5,62.7,30.06,NW,315,0.0,4.0,69,0.00,,---,0.00,VWS V14.01,2013-07-26 15:48:00,
2013-07-26 11:49:00,73.2,62.0,30.06,NNE,18,0.0,4.0,68,0.00,,---,0.00,VWS V14.01,2013-07-26 15:49:00,
2013-07-26 11:51:00,72.9,61.3,30.06,NNE,18,0.0,4.0,67,0.00,,---,0.00,VWS V14.01,2013-07-26 15:51:00,
2013-07-26 11:53:00,73.7,63.3,30.06,NNE,18,0.0,4.0,70,0.00,,---,0.00,VWS V14.01,2013-07-26 15:53:00,
2013-07-26 11:54:00,74.0,64.0,30.06,NNW,341,1.0,4.0,71,0.00,,---,0.00,VWS V14.01,2013-07-26 15:54:00,
2013-07-26 11:56:00,74.2,63.0,30.06,NNW,332,3.0,4.0,68,0.00,,---,0.00,VWS V14.01,2013-07-26 15:56:00,
2013-07-26 11:58:00,72.9,60.9,30.06,NNE,19,2.0,4.0,66,0.00,,---,0.00,VWS V14.01,2013-07-26 15:58:00,
2013-07-26 11:59:00,72.7,61.1,30.06,NNE,19,0.0,4.0,67,0.00,,---,0.00,VWS V14.01,2013-07-26 15:59:00,
2013-07-26 12:01:00,72.2,61.1,30.07,North,9,0.0,4.0,68,0.00,,---,0.00,VWS V14.01,2013-07-26 16:01:00,
2013-07-26 12:04:00,72.9,60.9,30.06,North,9,0.0,4.0,66,0.00,,---,0.00,VWS V14.01,2013-07-26 16:04:00,
2013-07-26 12:05:00,72.5,58.8,30.07,SW,222,3.0,3.0,62,0.00,,---,0.00,VWS V14.01,2013-07-26 16:05:00,
2013-07-26 12:06:00,72.5,58.8,30.07,SW,222,3.0,3.0,62,0.00,,---,0.00,VWS V14.01,2013-07-26 16:06:00,
2013-07-26 12:07:00,72.0,56.9,30.07,SW,233,0.0,3.0,59,0.00,,---,0.00,VWS V14.01,2013-07-26 16:07:00,
2013-07-26 12:09:00,71.6,58.8,30.07,NNW,340,0.0,3.0,64,0.00,,---,0.00,VWS V14.01,2013-07-26 16:09:00,
2013-07-26 12:10:00,71.7,58.0,30.06,NNW,348,0.0,3.0,62,0.00,,---,0.00,VWS V14.01,2013-07-26 16:10:00,
2013-07-26 12:11:00,71.7,59.3,30.07,NNW,348,0.0,3.0,65,0.00,,---,0.00,VWS V14.01,2013-07-26 16:11:00,
2013-07-26 12:13:00,72.1,59.7,30.06,NW,309,0.0,6.0,65,0.00,,---,0.00,VWS V14.01,2013-07-26 16:13:00,
2013-07-26 12:14:00,72.3,61.2,30.06,NW,309,0.0,6.0,68,0.00,,---,0.00,VWS V14.01,2013-07-26 16:14:00,
2013-07-26 12:16:00,73.3,62.5,30.06,NW,311,0.0,6.0,69,0.00,,---,0.00,VWS V14.01,2013-07-26 16:16:00,
2013-07-26 12:18:00,74.5,63.3,30.05,NNE,19,0.0,6.0,68,0.00,,---,0.00,VWS V14.01,2013-07-26 16:18:00,
2013-07-26 12:19:00,74.6,63.3,30.06,West,271,0.0,6.0,68,0.00,,---,0.00,VWS V14.01,2013-07-26 16:19:00,
2013-07-26 12:20:00,74.4,60.5,30.06,WNW,282,4.0,6.0,62,0.00,,---,0.00,VWS V14.01,2013-07-26 16:20:00,
2013-07-26 12:21:00,74.2,59.9,30.06,West,274,0.0,6.0,61,0.00,,---,0.00,VWS V14.01,2013-07-26 16:21:00,
2013-07-26 12:22:00,73.9,61.0,30.06,West,267,0.0,6.0,64,0.00,,---,0.00,VWS V14.01,2013-07-26 16:22:00,
2013-07-26 12:23:00,73.7,62.1,30.05,West,267,0.0,6.0,67,0.00,,---,0.00,VWS V14.01,2013-07-26 16:23:00,
2013-07-26 12:24:00,73.6,60.7,30.06,NNW,329,1.0,6.0,64,0.00,,---,0.00,VWS V14.01,2013-07-26 16:24:00,
2013-07-26 12:25:00,73.5,60.2,30.05,NE,42,0.0,6.0,63,0.00,,---,0.00,VWS V14.01,2013-07-26 16:25:00,
2013-07-26 12:26:00,73.6,61.5,30.06,NE,42,0.0,6.0,66,0.00,,---,0.00,VWS V14.01,2013-07-26 16:26:00,
2013-07-26 12:27:00,73.6,61.5,30.06,NNE,13,0.0,6.0,66,0.00,,---,0.00,VWS V14.01,2013-07-26 16:27:00,
2013-07-26 12:28:00,73.6,61.5,30.05,NNE,13,0.0,6.0,66,0.00,,---,0.00,VWS V14.01,2013-07-26 16:28:00,
2013-07-26 12:30:00,73.7,61.7,30.05,NNE,14,0.0,6.0,66,0.00,,---,0.00,VWS V14.01,2013-07-26 16:30:00,
2013-07-26 12:31:00,73.9,61.0,30.05,North,360,0.0,6.0,64,0.00,,---,0.00,VWS V14.01,2013-07-26 16:31:00,
2013-07-26 12:32:00,74.4,63.6,30.05,North,360,0.0,6.0,69,0.00,,---,0.00,VWS V14.01,2013-07-26 16:32:00,
2013-07-26 12:33:00,74.6,62.9,30.05,North,360,0.0,6.0,67,0.00,,---,0.00,VWS V14.01,2013-07-26 16:33:00,
2013-07-26 12:35:00,74.6,61.2,30.06,NNW,337,2.0,3.0,63,0.00,,---,0.00,VWS V14.01,2013-07-26 16:35:00,
2013-07-26 12:36:00,74.5,61.1,30.05,NNW,337,0.0,3.0,63,0.00,,---,0.00,VWS V14.01,2013-07-26 16:36:00,
2013-07-26 12:37:00,74.1,60.7,30.06,WSW,244,0.0,4.0,63,0.00,,---,0.00,VWS V14.01,2013-07-26 16:37:00,
2013-07-26 12:39:00,74.2,62.1,30.06,North,355,0.0,4.0,66,0.00,,---,0.00,VWS V14.01,2013-07-26 16:39:00,
2013-07-26 12:40:00,74.6,63.3,30.06,NE,37,0.0,4.0,68,0.00,,---,0.00,VWS V14.01,2013-07-26 16:40:00,
2013-07-26 12:41:00,74.9,62.8,30.06,NE,37,0.0,4.0,66,0.00,,---,0.00,VWS V14.01,2013-07-26 16:41:00,
2013-07-26 12:42:00,75.2,63.1,30.06,NNW,344,0.0,4.0,66,0.00,,---,0.00,VWS V14.01,2013-07-26 16:42:00,
2013-07-26 12:45:00,75.9,62.9,30.05,SSW,207,0.0,4.0,64,0.00,,---,0.00,VWS V14.01,2013-07-26 16:45:00,
2013-07-26 12:47:00,76.2,64.4,30.05,NW,323,0.0,4.0,67,0.00,,---,0.00,VWS V14.01,2013-07-26 16:47:00,
2013-07-26 12:48:00,76.3,64.6,30.05,NW,323,0.0,4.0,67,0.00,,---,0.00,VWS V14.01,2013-07-26 16:48:00,
2013-07-26 12:50:00,76.6,62.6,30.05,NNE,12,0.0,4.0,62,0.00,,---,0.00,VWS V14.01,2013-07-26 16:50:00,
2013-07-26 12:51:00,76.5,62.5,30.05,North,11,0.0,4.0,62,0.00,,---,0.00,VWS V14.01,2013-07-26 16:51:00,
2013-07-26 12:52:00,76.3,63.7,30.05,NW,305,0.0,4.0,65,0.00,,---,0.00,VWS V14.01,2013-07-26 16:52:00,
2013-07-26 12:53:00,76.4,64.2,30.05,North,11,0.0,4.0,66,0.00,,---,0.00,VWS V14.01,2013-07-26 16:53:00,
2013-07-26 12:56:00,75.2,62.2,30.06,West,273,0.0,4.0,64,0.00,,---,0.00,VWS V14.01,2013-07-26 16:56:00,
2013-07-26 12:57:00,74.9,61.0,30.05,West,273,0.0,4.0,62,0.00,,---,0.00,VWS V14.01,2013-07-26 16:57:00,
2013-07-26 12:58:00,74.8,61.8,30.05,West,273,0.0,4.0,64,0.00,,---,0.00,VWS V14.01,2013-07-26 16:58:00,
2013-07-26 13:02:00,75.0,61.6,30.05,NNW,338,0.0,4.0,63,0.00,,---,0.00,VWS V14.01,2013-07-26 17:02:00,
2013-07-26 13:03:00,74.7,61.3,30.05,NW,313,0.0,4.0,63,0.00,,---,0.00,VWS V14.01,2013-07-26 17:03:00,
2013-07-26 13:04:00,74.6,60.7,30.05,WSW,249,3.0,4.0,62,0.00,,---,0.00,VWS V14.01,2013-07-26 17:04:00,
2013-07-26 13:07:00,73.7,60.8,30.06,WNW,295,0.0,1.0,64,0.00,,---,0.00,VWS V14.01,2013-07-26 17:07:00,
2013-07-26 13:08:00,73.9,60.5,30.06,North,350,0.0,2.0,63,0.00,,---,0.00,VWS V14.01,2013-07-26 17:08:00,
2013-07-26 13:09:00,74.0,60.2,30.06,ENE,60,0.0,2.0,62,0.00,,---,0.00,VWS V14.01,2013-07-26 17:09:00,
2013-07-26 13:12:00,75.0,61.1,30.06,North,360,0.0,5.0,62,0.00,,---,0.00,VWS V14.01,2013-07-26 17:12:00,
2013-07-26 13:13:00,75.2,62.6,30.06,North,360,0.0,5.0,65,0.00,,---,0.00,VWS V14.01,2013-07-26 17:13:00,
2013-07-26 13:14:00,75.3,62.7,30.06,North,355,0.0,5.0,65,0.00,,---,0.00,VWS V14.01,2013-07-26 17:14:00,
2013-07-26 13:18:00,75.2,62.2,30.05,North,355,1.0,5.0,64,0.00,,---,0.00,VWS V14.01,2013-07-26 17:18:00,
2013-07-26 13:19:00,75.2,61.8,30.06,NNW,333,2.0,5.0,63,0.00,,---,0.00,VWS V14.01,2013-07-26 17:19:00,
2013-07-26 13:20:00,75.3,61.8,30.06,NW,317,0.0,5.0,63,0.00,,---,0.00,VWS V14.01,2013-07-26 17:20:00,
2013-07-26 13:23:00,75.3,63.2,30.06,South,177,0.0,5.0,66,0.00,,---,0.00,VWS V14.01,2013-07-26 17:23:00,
2013-07-26 13:24:00,75.5,62.5,30.06,South,180,0.0,5.0,64,0.00,,---,0.00,VWS V14.01,2013-07-26 17:24:00,
2013-07-26 13:25:00,75.4,62.4,30.05,WNW,284,0.0,5.0,64,0.00,,---,0.00,VWS V14.01,2013-07-26 17:25:00,
2013-07-26 13:26:00,75.5,62.0,30.06,WNW,295,0.0,5.0,63,0.00,,---,0.00,VWS V14.01,2013-07-26 17:26:00,
2013-07-26 13:28:00,75.7,61.3,30.05,WNW,288,0.0,5.0,61,0.00,,---,0.00,VWS V14.01,2013-07-26 17:28:00,
2013-07-26 13:29:00,75.7,61.3,30.05,West,278,1.0,5.0,61,0.00,,---,0.00,VWS V14.01,2013-07-26 17:29:00,
2013-07-26 13:30:00,75.7,61.8,30.05,West,278,0.0,5.0,62,0.00,,---,0.00,VWS V14.01,2013-07-26 17:30:00,
2013-07-26 13:31:00,75.6,61.2,30.05,West,276,0.0,5.0,61,0.00,,---,0.00,VWS V14.01,2013-07-26 17:31:00,
2013-07-26 13:32:00,75.3,60.9,30.05,WNW,303,0.0,5.0,61,0.00,,---,0.00,VWS V14.01,2013-07-26 17:32:00,
2013-07-26 13:34:00,75.2,61.3,30.05,NW,306,0.0,5.0,62,0.00,,---,0.00,VWS V14.01,2013-07-26 17:34:00,
2013-07-26 13:35:00,75.2,61.3,30.05,NW,306,0.0,0.0,62,0.00,,---,0.00,VWS V14.01,2013-07-26 17:35:00,
2013-07-26 13:36:00,75.6,62.1,30.05,NNW,345,0.0,1.0,63,0.00,,---,0.00,VWS V14.01,2013-07-26 17:36:00,
2013-07-26 13:37:00,75.9,61.0,30.05,North,360,0.0,3.0,60,0.00,,---,0.00,VWS V14.01,2013-07-26 17:37:00,
2013-07-26 13:39:00,76.6,63.5,30.05,NW,323,2.0,3.0,64,0.00,,---,0.00,VWS V14.01,2013-07-26 17:39:00,
2013-07-26 13:41:00,76.6,63.1,30.05,NNW,339,2.0,4.0,63,0.00,,---,0.00,VWS V14.01,2013-07-26 17:41:00,
2013-07-26 13:42:00,76.3,61.9,30.05,NNW,340,3.0,4.0,61,0.00,,---,0.00,VWS V14.01,2013-07-26 17:42:00,
2013-07-26 13:44:00,76.1,61.2,30.05,North,360,0.0,5.0,60,0.00,,---,0.00,VWS V14.01,2013-07-26 17:44:00,
2013-07-26 13:47:00,76.7,62.2,30.05,WNW,286,0.0,5.0,61,0.00,,---,0.00,VWS V14.01,2013-07-26 17:47:00,
2013-07-26 13:49:00,76.9,63.4,30.05,North,360,1.0,5.0,63,0.00,,---,0.00,VWS V14.01,2013-07-26 17:49:00,
2013-07-26 13:50:00,76.9,61.5,30.05,North,355,0.0,5.0,59,0.00,,---,0.00,VWS V14.01,2013-07-26 17:50:00,
2013-07-26 13:52:00,76.4,61.5,30.05,WNW,299,0.0,5.0,60,0.00,,---,0.00,VWS V14.01,2013-07-26 17:52:00,
2013-07-26 13:53:00,76.2,60.8,30.05,WNW,299,0.0,5.0,59,0.00,,---,0.00,VWS V14.01,2013-07-26 17:53:00,
2013-07-26 13:55:00,75.5,59.7,30.05,NNW,332,0.0,5.0,58,0.00,,---,0.00,VWS V14.01,2013-07-26 17:55:00,
2013-07-26 13:57:00,75.2,63.5,30.05,NNW,333,0.0,5.0,67,0.00,,---,0.00,VWS V14.01,2013-07-26 17:57:00,
2013-07-26 13:58:00,75.6,62.1,30.05,NNW,333,0.0,5.0,63,0.00,,---,0.00,VWS V14.01,2013-07-26 17:58:00,
2013-07-26 14:00:00,75.9,62.9,30.05,SW,219,0.0,5.0,64,0.00,,---,0.00,VWS V14.01,2013-07-26 18:00:00,
2013-07-26 14:03:00,75.8,60.9,30.05,NNW,331,0.0,5.0,60,0.00,,---,0.00,VWS V14.01,2013-07-26 18:03:00,
2013-07-26 14:06:00,76.1,61.2,30.05,NW,315,2.0,2.0,60,0.00,,---,0.00,VWS V14.01,2013-07-26 18:06:00,
2013-07-26 14:08:00,75.9,61.0,30.05,NW,322,0.0,5.0,60,0.00,,---,0.00,VWS V14.01,2013-07-26 18:08:00,
2013-07-26 14:09:00,75.8,60.5,30.05,NW,322,0.0,5.0,59,0.00,,---,0.00,VWS V14.01,2013-07-26 18:09:00,
2013-07-26 14:11:00,75.8,60.9,30.05,NNW,341,2.0,7.0,60,0.00,,---,0.00,VWS V14.01,2013-07-26 18:11:00,
2013-07-26 14:13:00,75.7,60.4,30.05,NNW,344,0.0,7.0,59,0.00,,---,0.00,VWS V14.01,2013-07-26 18:13:00,
2013-07-26 14:14:00,75.8,60.5,30.05,NNW,342,0.0,7.0,59,0.00,,---,0.00,VWS V14.01,2013-07-26 18:14:00,
2013-07-26 14:16:00,75.7,60.8,30.05,WNW,300,0.0,7.0,60,0.00,,---,0.00,VWS V14.01,2013-07-26 18:16:00,
2013-07-26 14:19:00,76.1,60.8,30.05,West,267,0.0,7.0,59,0.00,,---,0.00,VWS V14.01,2013-07-26 18:19:00,
2013-07-26 14:20:00,76.0,61.1,30.05,NNW,348,3.0,7.0,60,0.00,,---,0.00,VWS V14.01,2013-07-26 18:20:00,
2013-07-26 14:22:00,76.1,61.7,30.05,North,349,0.0,7.0,61,0.00,,---,0.00,VWS V14.01,2013-07-26 18:22:00,
2013-07-26 14:24:00,75.8,59.0,30.04,NNW,329,0.0,7.0,56,0.00,,---,0.00,VWS V14.01,2013-07-26 18:24:00,
2013-07-26 14:25:00,75.7,58.9,30.05,NNW,330,0.0,7.0,56,0.00,,---,0.00,VWS V14.01,2013-07-26 18:25:00,
2013-07-26 14:28:00,75.4,60.1,30.04,NNE,31,0.0,7.0,59,0.00,,---,0.00,VWS V14.01,2013-07-26 18:28:00,
2013-07-26 14:30:00,75.9,61.5,30.04,NNE,30,0.0,7.0,61,0.00,,---,0.00,VWS V14.01,2013-07-26 18:30:00,
2013-07-26 14:33:00,76.4,61.5,30.04,West,267,1.0,7.0,60,0.00,,---,0.00,VWS V14.01,2013-07-26 18:33:00,
2013-07-26 14:34:00,76.3,60.0,30.04,NNW,338,1.0,7.0,57,0.00,,---,0.00,VWS V14.01,2013-07-26 18:34:00,
2013-07-26 14:35:00,76.0,60.7,30.04,NNW,342,0.0,3.0,59,0.00,,---,0.00,VWS V14.01,2013-07-26 18:35:00,
2013-07-26 14:38:00,75.3,60.9,30.04,NNW,341,0.0,3.0,61,0.00,,---,0.00,VWS V14.01,2013-07-26 18:38:00,
2013-07-26 14:39:00,75.5,62.0,30.04,NNW,341,0.0,3.0,63,0.00,,---,0.00,VWS V14.01,2013-07-26 18:39:00,
2013-07-26 14:40:00,75.9,63.3,30.04,NNW,340,0.0,3.0,65,0.00,,---,0.00,VWS V14.01,2013-07-26 18:40:00,
2013-07-26 14:41:00,75.9,60.6,30.04,NNW,340,0.0,3.0,59,0.00,,---,0.00,VWS V14.01,2013-07-26 18:41:00,
2013-07-26 14:43:00,76.4,62.9,30.04,NNW,347,2.0,3.0,63,0.00,,---,0.00,VWS V14.01,2013-07-26 18:43:00,
2013-07-26 14:44:00,76.4,61.5,30.04,WNW,297,0.0,5.0,60,0.00,,---,0.00,VWS V14.01,2013-07-26 18:44:00,
2013-07-26 14:45:00,76.4,61.5,30.04,WNW,297,0.0,5.0,60,0.00,,---,0.00,VWS V14.01,2013-07-26 18:45:00,
2013-07-26 14:46:00,76.5,63.0,30.04,WNW,297,0.0,5.0,63,0.00,,---,0.00,VWS V14.01,2013-07-26 18:46:00,
2013-07-26 14:47:00,76.7,61.8,30.04,WNW,297,0.0,5.0,60,0.00,,---,0.00,VWS V14.01,2013-07-26 18:47:00,
2013-07-26 14:49:00,76.6,60.2,30.04,North,360,0.0,5.0,57,0.00,,---,0.00,VWS V14.01,2013-07-26 18:49:00,
2013-07-26 14:51:00,76.4,60.5,30.04,North,5,1.0,5.0,58,0.00,,---,0.00,VWS V14.01,2013-07-26 18:51:00,
2013-07-26 14:52:00,76.6,62.6,30.04,North,360,0.0,5.0,62,0.00,,---,0.00,VWS V14.01,2013-07-26 18:52:00,
2013-07-26 14:55:00,77.2,61.8,30.03,NW,310,0.0,5.0,59,0.00,,---,0.00,VWS V14.01,2013-07-26 18:55:00,
2013-07-26 14:56:00,77.3,59.9,30.04,NW,311,0.0,5.0,55,0.00,,---,0.00,VWS V14.01,2013-07-26 18:56:00,
2013-07-26 14:58:00,77.3,61.4,30.04,NNW,342,0.0,5.0,58,0.00,,---,0.00,VWS V14.01,2013-07-26 18:58:00,
2013-07-26 15:00:00,77.1,59.2,30.04,NNW,342,0.0,5.0,54,0.00,,---,0.00,VWS V14.01,2013-07-26 19:00:00,
2013-07-26 15:01:00,76.5,59.2,30.04,NNW,337,0.0,5.0,55,0.00,,---,0.00,VWS V14.01,2013-07-26 19:01:00,
2013-07-26 15:02:00,76.1,59.8,30.04,NNW,338,0.0,5.0,57,0.00,,---,0.00,VWS V14.01,2013-07-26 19:02:00,
2013-07-26 15:03:00,76.1,60.3,30.04,NNW,337,0.0,5.0,58,0.00,,---,0.00,VWS V14.01,2013-07-26 19:03:00,
2013-07-26 15:05:00,76.5,60.2,30.04,NW,325,2.0,3.0,57,0.00,,---,0.00,VWS V14.01,2013-07-26 19:05:00,
2013-07-26 15:07:00,76.7,59.8,30.03,NW,325,0.0,3.0,56,0.00,,---,0.00,VWS V14.01,2013-07-26 19:07:00,
2013-07-26 15:08:00,76.7,60.8,30.03,NW,321,2.0,3.0,58,0.00,,---,0.00,VWS V14.01,2013-07-26 19:08:00,
2013-07-26 15:10:00,76.7,61.3,30.03,NW,321,0.0,3.0,59,0.00,,---,0.00,VWS V14.01,2013-07-26 19:10:00,
2013-07-26 15:12:00,76.7,60.8,30.03,NW,325,1.0,3.0,58,0.00,,---,0.00,VWS V14.01,2013-07-26 19:12:00,
2013-07-26 15:13:00,77.0,62.1,30.04,NW,325,1.0,3.0,60,0.00,,---,0.00,VWS V14.01,2013-07-26 19:13:00,
2013-07-26 15:16:00,76.6,60.7,30.04,SW,218,0.0,3.0,58,0.00,,---,0.00,VWS V14.01,2013-07-26 19:16:00,
2013-07-26 15:17:00,76.5,62.1,30.04,ENE,64,0.0,3.0,61,0.00,,---,0.00,VWS V14.01,2013-07-26 19:17:00,
2013-07-26 15:18:00,76.9,60.5,30.04,ENE,64,0.0,3.0,57,0.00,,---,0.00,VWS V14.01,2013-07-26 19:18:00,
2013-07-26 15:21:00,77.0,61.1,30.04,ENE,64,0.0,3.0,58,0.00,,---,0.00,VWS V14.01,2013-07-26 19:21:00,
2013-07-26 15:22:00,76.5,60.2,30.04,SSE,164,0.0,3.0,57,0.00,,---,0.00,VWS V14.01,2013-07-26 19:22:00,
2013-07-26 15:23:00,76.3,60.0,30.04,SSE,168,2.0,3.0,57,0.00,,---,0.00,VWS V14.01,2013-07-26 19:23:00,
2013-07-26 15:25:00,75.5,60.2,30.04,South,186,0.0,4.0,59,0.00,,---,0.00,VWS V14.01,2013-07-26 19:25:00,
2013-07-26 15:27:00,75.0,59.2,30.04,South,186,0.0,4.0,58,0.00,,---,0.00,VWS V14.01,2013-07-26 19:27:00,
2013-07-26 15:28:00,75.6,59.3,30.04,South,186,0.0,4.0,57,0.00,,---,0.00,VWS V14.01,2013-07-26 19:28:00,
2013-07-26 15:31:00,76.9,61.5,30.04,West,277,1.0,4.0,59,0.00,,---,0.00,VWS V14.01,2013-07-26 19:31:00,
2013-07-26 15:32:00,76.9,61.5,30.03,West,277,0.0,4.0,59,0.00,,---,0.00,VWS V14.01,2013-07-26 19:32:00,
2013-07-26 15:33:00,76.9,59.5,30.03,WSW,257,0.0,4.0,55,0.00,,---,0.00,VWS V14.01,2013-07-26 19:33:00,
2013-07-26 15:37:00,76.8,59.9,30.03,NNW,333,1.0,1.0,56,0.00,,---,0.00,VWS V14.01,2013-07-26 19:37:00,
2013-07-26 15:38:00,76.8,59.9,30.03,NNE,15,2.0,2.0,56,0.00,,---,0.00,VWS V14.01,2013-07-26 19:38:00,
2013-07-26 15:39:00,76.6,59.2,30.03,North,11,0.0,2.0,55,0.00,,---,0.00,VWS V14.01,2013-07-26 19:39:00,
2013-07-26 15:42:00,77.0,60.1,30.03,NW,323,0.0,3.0,56,0.00,,---,0.00,VWS V14.01,2013-07-26 19:42:00,
2013-07-26 15:43:00,77.4,60.5,30.03,NW,324,0.0,3.0,56,0.00,,---,0.00,VWS V14.01,2013-07-26 19:43:00,
2013-07-26 15:44:00,77.7,60.8,30.03,NW,324,1.0,3.0,56,0.00,,---,0.00,VWS V14.01,2013-07-26 19:44:00,
2013-07-26 15:45:00,77.4,59.5,30.03,NW,324,0.0,3.0,54,0.00,,---,0.00,VWS V14.01,2013-07-26 19:45:00,
2013-07-26 15:47:00,77.5,61.1,30.03,North,355,0.0,3.0,57,0.00,,---,0.00,VWS V14.01,2013-07-26 19:47:00,
2013-07-26 15:48:00,77.6,61.2,30.03,North,355,0.0,3.0,57,0.00,,---,0.00,VWS V14.01,2013-07-26 19:48:00,
2013-07-26 15:49:00,77.8,62.3,30.03,WNW,286,0.0,3.0,59,0.00,,---,0.00,VWS V14.01,2013-07-26 19:49:00,
2013-07-26 15:50:00,77.8,59.8,30.03,WNW,286,0.0,3.0,54,0.00,,---,0.00,VWS V14.01,2013-07-26 19:50:00,
2013-07-26 15:53:00,77.8,62.8,30.03,NNE,13,0.0,3.0,60,0.00,,---,0.00,VWS V14.01,2013-07-26 19:53:00,
2013-07-26 15:54:00,78.2,61.7,30.03,NNE,13,0.0,3.0,57,0.00,,---,0.00,VWS V14.01,2013-07-26 19:54:00,
2013-07-26 15:55:00,78.3,61.8,30.03,NNE,13,0.0,3.0,57,0.00,,---,0.00,VWS V14.01,2013-07-26 19:55:00,
2013-07-26 15:59:00,77.6,60.2,30.03,West,267,0.0,3.0,55,0.00,,---,0.00,VWS V14.01,2013-07-26 19:59:00,
2013-07-26 16:00:00,77.1,59.7,30.03,West,267,0.0,3.0,55,0.00,,---,0.00,VWS V14.01,2013-07-26 20:00:00,
2013-07-26 16:01:00,77.2,60.3,30.03,West,271,0.0,3.0,56,0.00,,---,0.00,VWS V14.01,2013-07-26 20:01:00,
2013-07-26 16:04:00,77.3,59.9,30.03,NNW,345,4.0,4.0,55,0.00,,---,0.00,VWS V14.01,2013-07-26 20:04:00,
2013-07-26 16:05:00,76.9,59.0,30.03,NNW,336,0.0,3.0,54,0.00,,---,0.00,VWS V14.01,2013-07-26 20:05:00,
2013-07-26 16:06:00,76.6,57.7,30.03,NNW,336,0.0,3.0,52,0.00,,---,0.00,VWS V14.01,2013-07-26 20:06:00,
2013-07-26 16:07:00,76.3,58.5,30.03,NNW,336,0.0,3.0,54,0.00,,---,0.00,VWS V14.01,2013-07-26 20:07:00,
2013-07-26 16:09:00,76.1,60.3,30.03,NNW,336,0.0,3.0,58,0.00,,---,0.00,VWS V14.01,2013-07-26 20:09:00,
2013-07-26 16:10:00,76.4,59.6,30.03,NNW,336,0.0,3.0,56,0.00,,---,0.00,VWS V14.01,2013-07-26 20:10:00,
2013-07-26 16:11:00,76.5,59.7,30.03,NNW,336,0.0,3.0,56,0.00,,---,0.00,VWS V14.01,2013-07-26 20:11:00,
2013-07-26 16:12:00,77.3,61.9,30.03,NNW,337,0.0,3.0,59,0.00,,---,0.00,VWS V14.01,2013-07-26 20:12:00,
2013-07-26 16:14:00,77.2,58.8,30.02,NNW,337,0.0,3.0,53,0.00,,---,0.00,VWS V14.01,2013-07-26 20:14:00,
2013-07-26 16:16:00,77.1,60.2,30.03,NNW,337,0.0,3.0,56,0.00,,---,0.00,VWS V14.01,2013-07-26 20:16:00,
2013-07-26 16:17:00,77.3,59.9,30.02,NNW,337,0.0,3.0,55,0.00,,---,0.00,VWS V14.01,2013-07-26 20:17:00,
2013-07-26 16:18:00,77.3,59.9,30.02,NNW,337,0.0,3.0,55,0.00,,---,0.00,VWS V14.01,2013-07-26 20:18:00,
2013-07-26 16:19:00,77.5,60.1,30.02,West,259,1.0,3.0,55,0.00,,---,0.00,VWS V14.01,2013-07-26 20:19:00,
2013-07-26 16:22:00,76.6,59.2,30.02,West,259,0.0,3.0,55,0.00,,---,0.00,VWS V14.01,2013-07-26 20:22:00,
2013-07-26 16:23:00,76.5,60.6,30.02,West,259,0.0,3.0,58,0.00,,---,0.00,VWS V14.01,2013-07-26 20:23:00,
2013-07-26 16:24:00,76.6,60.2,30.02,NNW,336,0.0,3.0,57,0.00,,---,0.00,VWS V14.01,2013-07-26 20:24:00,
2013-07-26 16:25:00,76.7,59.3,30.02,NNW,344,2.0,3.0,55,0.00,,---,0.00,VWS V14.01,2013-07-26 20:25:00,
2013-07-26 16:28:00,76.9,60.5,30.02,NNW,341,0.0,3.0,57,0.00,,---,0.00,VWS V14.01,2013-07-26 20:28:00,
2013-07-26 16:30:00,77.1,60.7,30.02,NNW,341,0.0,3.0,57,0.00,,---,0.00,VWS V14.01,2013-07-26 20:30:00,
2013-07-26 16:31:00,77.1,59.7,30.02,NNW,345,0.0,4.0,55,0.00,,---,0.00,VWS V14.01,2013-07-26 20:31:00,
2013-07-26 16:33:00,77.3,59.9,30.02,NW,326,0.0,4.0,55,0.00,,---,0.00,VWS V14.01,2013-07-26 20:33:00,
2013-07-26 16:34:00,77.1,59.7,30.02,NW,326,0.0,4.0,55,0.00,,---,0.00,VWS V14.01,2013-07-26 20:34:00,
2013-07-26 16:35:00,77.0,59.6,30.02,NNW,327,0.0,0.0,55,0.00,,---,0.00,VWS V14.01,2013-07-26 20:35:00,
2013-07-26 16:36:00,76.8,59.9,30.02,NW,326,0.0,0.0,56,0.00,,---,0.00,VWS V14.01,2013-07-26 20:36:00,
2013-07-26 16:38:00,76.2,59.9,30.02,NNW,330,0.0,1.0,57,0.00,,---,0.00,VWS V14.01,2013-07-26 20:38:00,
2013-07-26 16:39:00,76.2,59.9,30.02,WNW,292,0.0,1.0,57,0.00,,---,0.00,VWS V14.01,2013-07-26 20:39:00,
2013-07-26 16:40:00,76.1,58.8,30.02,WNW,294,0.0,1.0,55,0.00,,---,0.00,VWS V14.01,2013-07-26 20:40:00,
2013-07-26 16:41:00,76.0,59.7,30.02,WNW,294,0.0,1.0,57,0.00,,---,0.00,VWS V14.01,2013-07-26 20:41:00,
2013-07-26 16:44:00,76.5,61.1,30.02,WNW,294,0.0,1.0,59,0.00,,---,0.00,VWS V14.01,2013-07-26 20:44:00,
2013-07-26 16:45:00,76.8,59.9,30.02,WNW,294,0.0,1.0,56,0.00,,---,0.00,VWS V14.01,2013-07-26 20:45:00,
2013-07-26 16:47:00,76.7,59.8,30.02,WNW,294,0.0,2.0,56,0.00,,---,0.00,VWS V14.01,2013-07-26 20:47:00,
2013-07-26 16:48:00,76.5,59.2,30.02,NW,315,0.0,3.0,55,0.00,,---,0.00,VWS V14.01,2013-07-26 20:48:00,
2013-07-26 16:49:00,76.5,59.2,30.02,NW,315,0.0,3.0,55,0.00,,---,0.00,VWS V14.01,2013-07-26 20:49:00,
2013-07-26 16:51:00,76.6,60.7,30.02,NW,315,0.0,3.0,58,0.00,,---,0.00,VWS V14.01,2013-07-26 20:51:00,
2013-07-26 16:52:00,76.9,59.5,30.02,NW,314,0.0,3.0,55,0.00,,---,0.00,VWS V14.01,2013-07-26 20:52:00,
2013-07-26 16:53:00,76.8,58.9,30.02,NW,316,0.0,3.0,54,0.00,,---,0.00,VWS V14.01,2013-07-26 20:53:00,
2013-07-26 16:54:00,76.7,58.8,30.02,NNW,333,0.0,3.0,54,0.00,,---,0.00,VWS V14.01,2013-07-26 20:54:00,
2013-07-26 16:55:00,76.4,60.5,30.02,NNW,331,1.0,3.0,58,0.00,,---,0.00,VWS V14.01,2013-07-26 20:55:00,
2013-07-26 16:56:00,76.1,59.8,30.02,NW,309,2.0,3.0,57,0.00,,---,0.00,VWS V14.01,2013-07-26 20:56:00,
2013-07-26 16:58:00,75.7,58.9,30.02,NW,309,0.0,3.0,56,0.00,,---,0.00,VWS V14.01,2013-07-26 20:58:00,
2013-07-26 16:59:00,75.4,59.1,30.02,NW,309,0.0,3.0,57,0.00,,---,0.00,VWS V14.01,2013-07-26 20:59:00,
2013-07-26 17:00:00,75.1,58.3,30.02,NW,309,0.0,3.0,56,0.00,,---,0.00,VWS V14.01,2013-07-26 21:00:00,
2013-07-26 17:02:00,75.2,59.9,30.02,NW,317,0.0,4.0,59,0.00,,---,0.00,VWS V14.01,2013-07-26 21:02:00,
2013-07-26 17:03:00,75.3,59.0,30.02,NW,317,0.0,4.0,57,0.00,,---,0.00,VWS V14.01,2013-07-26 21:03:00,
2013-07-26 17:04:00,75.5,60.7,30.02,West,281,0.0,4.0,60,0.00,,---,0.00,VWS V14.01,2013-07-26 21:04:00,
2013-07-26 17:05:00,76.0,59.7,30.02,West,281,0.0,0.0,57,0.00,,---,0.00,VWS V14.01,2013-07-26 21:05:00,
2013-07-26 17:08:00,76.4,61.0,30.02,NNW,331,0.0,3.0,59,0.00,,---,0.00,VWS V14.01,2013-07-26 21:08:00,
2013-07-26 17:09:00,76.7,60.3,30.02,NNW,331,0.0,3.0,57,0.00,,---,0.00,VWS V14.01,2013-07-26 21:09:00,
2013-07-26 17:11:00,77.1,60.7,30.02,ESE,106,0.0,3.0,57,0.00,,---,0.00,VWS V14.01,2013-07-26 21:11:00,
2013-07-26 17:13:00,76.9,60.5,30.02,North,9,0.0,3.0,57,0.00,,---,0.00,VWS V14.01,2013-07-26 21:13:00,
2013-07-26 17:14:00,76.9,60.0,30.02,North,9,0.0,3.0,56,0.00,,---,0.00,VWS V14.01,2013-07-26 21:14:00,
2013-07-26 17:16:00,76.5,59.7,30.02,WSW,256,0.0,3.0,56,0.00,,---,0.00,VWS V14.01,2013-07-26 21:16:00,
2013-07-26 17:19:00,76.2,59.9,30.02,North,5,0.0,3.0,57,0.00,,---,0.00,VWS V14.01,2013-07-26 21:19:00,
2013-07-26 17:20:00,76.1,60.8,30.02,North,5,0.0,3.0,59,0.00,,---,0.00,VWS V14.01,2013-07-26 21:20:00,
2013-07-26 17:21:00,75.9,61.5,30.02,North,10,0.0,3.0,61,0.00,,---,0.00,VWS V14.01,2013-07-26 21:21:00,
2013-07-26 17:24:00,76.2,60.4,30.02,North,11,0.0,4.0,58,0.00,,---,0.00,VWS V14.01,2013-07-26 21:24:00,
2013-07-26 17:25:00,76.1,59.8,30.02,North,11,0.0,4.0,57,0.00,,---,0.00,VWS V14.01,2013-07-26 21:25:00,
2013-07-26 17:26:00,75.9,59.1,30.02,NNE,15,0.0,4.0,56,0.00,,---,0.00,VWS V14.01,2013-07-26 21:26:00,
2013-07-26 17:29:00,75.9,59.6,30.02,NNE,16,0.0,5.0,57,0.00,,---,0.00,VWS V14.01,2013-07-26 21:29:00,
2013-07-26 17:30:00,76.0,59.7,30.02,NNE,15,0.0,5.0,57,0.00,,---,0.00,VWS V14.01,2013-07-26 21:30:00,
2013-07-26 17:32:00,76.1,60.8,30.02,North,355,0.0,5.0,59,0.00,,---,0.00,VWS V14.01,2013-07-26 21:32:00,
2013-07-26 17:34:00,75.9,59.6,30.02,North,350,0.0,6.0,57,0.00,,---,0.00,VWS V14.01,2013-07-26 21:34:00,
2013-07-26 17:35:00,75.8,59.5,30.02,North,349,0.0,0.0,57,0.00,,---,0.00,VWS V14.01,2013-07-26 21:35:00,
2013-07-26 17:38:00,75.9,61.0,30.01,NNW,347,0.0,0.0,60,0.00,,---,0.00,VWS V14.01,2013-07-26 21:38:00,
2013-07-26 17:40:00,75.9,61.5,30.01,NNW,346,0.0,0.0,61,0.00,,---,0.00,VWS V14.01,2013-07-26 21:40:00,
2013-07-26 17:43:00,75.1,60.8,30.01,NNW,347,0.0,0.0,61,0.00,,---,0.00,VWS V14.01,2013-07-26 21:43:00,
2013-07-26 17:45:00,74.9,61.9,30.01,NNW,346,0.0,0.0,64,0.00,,---,0.00,VWS V14.01,2013-07-26 21:45:00,
2013-07-26 17:47:00,74.8,60.9,30.01,NNW,348,0.0,0.0,62,0.00,,---,0.00,VWS V14.01,2013-07-26 21:47:00,
2013-07-26 17:49:00,74.7,60.4,30.01,North,349,0.0,0.0,61,0.00,,---,0.00,VWS V14.01,2013-07-26 21:49:00,
2013-07-26 17:50:00,74.8,60.9,30.01,NNW,348,0.0,0.0,62,0.00,,---,0.00,VWS V14.01,2013-07-26 21:50:00,
2013-07-26 17:52:00,74.8,61.4,30.01,North,355,0.0,0.0,63,0.00,,---,0.00,VWS V14.01,2013-07-26 21:52:00,
2013-07-26 17:54:00,74.4,61.0,30.01,North,355,0.0,0.0,63,0.00,,---,0.00,VWS V14.01,2013-07-26 21:54:00,
2013-07-26 17:55:00,74.2,60.8,30.01,North,355,0.0,0.0,63,0.00,,---,0.00,VWS V14.01,2013-07-26 21:55:00,
2013-07-26 17:56:00,74.1,59.8,30.02,North,355,0.0,0.0,61,0.00,,---,0.00,VWS V14.01,2013-07-26 21:56:00,
2013-07-26 17:57:00,74.2,60.8,30.02,North,355,0.0,0.0,63,0.00,,---,0.00,VWS V14.01,2013-07-26 21:57:00,
2013-07-26 17:58:00,74.1,60.7,30.01,North,355,0.0,0.0,63,0.00,,---,0.00,VWS V14.01,2013-07-26 21:58:00,
2013-07-26 18:00:00,74.4,60.5,30.01,North,355,0.0,0.0,62,0.00,,---,0.00,VWS V14.01,2013-07-26 22:00:00,
2013-07-26 18:01:00,74.3,60.5,30.02,North,355,0.0,0.0,62,0.00,,---,0.00,VWS V14.01,2013-07-26 22:01:00,
2013-07-26 18:02:00,74.4,60.5,30.02,North,355,0.0,0.0,62,0.00,,---,0.00,VWS V14.01,2013-07-26 22:02:00,
2013-07-26 18:03:00,74.4,60.5,30.02,North,360,0.0,0.0,62,0.00,,---,0.00,VWS V14.01,2013-07-26 22:03:00,
2013-07-26 18:05:00,74.3,60.5,30.01,West,273,0.0,0.0,62,0.00,,---,0.00,VWS V14.01,2013-07-26 22:05:00,
2013-07-26 18:06:00,74.3,60.9,30.01,West,273,0.0,0.0,63,0.00,,---,0.00,VWS V14.01,2013-07-26 22:06:00,
2013-07-26 18:08:00,74.2,60.4,30.02,West,273,0.0,0.0,62,0.00,,---,0.00,VWS V14.01,2013-07-26 22:08:00,
2013-07-26 18:09:00,74.2,60.8,30.01,West,273,0.0,1.0,63,0.00,,---,0.00,VWS V14.01,2013-07-26 22:09:00,
2013-07-26 18:10:00,74.2,60.8,30.02,NNE,19,0.0,3.0,63,0.00,,---,0.00,VWS V14.01,2013-07-26 22:10:00,
2013-07-26 18:11:00,74.2,60.4,30.01,NNE,19,0.0,3.0,62,0.00,,---,0.00,VWS V14.01,2013-07-26 22:11:00,
2013-07-26 18:13:00,74.4,60.1,30.01,NNE,19,0.0,3.0,61,0.00,,---,0.00,VWS V14.01,2013-07-26 22:13:00,
2013-07-26 18:15:00,74.3,60.0,30.01,NNE,19,0.0,3.0,61,0.00,,---,0.00,VWS V14.01,2013-07-26 22:15:00,
2013-07-26 18:16:00,74.2,61.7,30.01,North,355,0.0,3.0,65,0.00,,---,0.00,VWS V14.01,2013-07-26 22:16:00,
2013-07-26 18:17:00,74.0,60.2,30.01,WNW,299,0.0,3.0,62,0.00,,---,0.00,VWS V14.01,2013-07-26 22:17:00,
2013-07-26 18:18:00,74.0,61.9,30.01,WNW,299,0.0,3.0,66,0.00,,---,0.00,VWS V14.01,2013-07-26 22:18:00,
2013-07-26 18:21:00,73.8,60.4,30.02,WNW,299,0.0,3.0,63,0.00,,---,0.00,VWS V14.01,2013-07-26 22:21:00,
2013-07-26 18:22:00,73.7,60.3,30.02,WNW,298,0.0,3.0,63,0.00,,---,0.00,VWS V14.01,2013-07-26 22:22:00,
2013-07-26 18:24:00,73.6,60.7,30.01,WNW,298,0.0,3.0,64,0.00,,---,0.00,VWS V14.01,2013-07-26 22:24:00,
2013-07-26 18:26:00,73.5,60.6,30.01,WNW,298,0.0,3.0,64,0.00,,---,0.00,VWS V14.01,2013-07-26 22:26:00,
2013-07-26 18:27:00,73.5,60.6,30.02,WNW,298,0.0,3.0,64,0.00,,---,0.00,VWS V14.01,2013-07-26 22:27:00,
2013-07-26 18:28:00,73.4,60.0,30.02,WNW,298,0.0,3.0,63,0.00,,---,0.00,VWS V14.01,2013-07-26 22:28:00,
2013-07-26 18:30:00,73.4,60.5,30.01,WNW,298,0.0,3.0,64,0.00,,---,0.00,VWS V14.01,2013-07-26 22:30:00,
2013-07-26 18:31:00,73.4,60.0,30.02,WNW,298,0.0,3.0,63,0.00,,---,0.00,VWS V14.01,2013-07-26 22:31:00,
2013-07-26 18:32:00,73.4,60.0,30.02,WNW,298,0.0,3.0,63,0.00,,---,0.00,VWS V14.01,2013-07-26 22:32:00,
2013-07-26 18:33:00,73.4,60.5,30.02,WNW,298,0.0,3.0,64,0.00,,---,0.00,VWS V14.01,2013-07-26 22:33:00,
2013-07-26 18:37:00,73.3,60.0,30.02,NW,324,0.0,1.0,63,0.00,,---,0.00,VWS V14.01,2013-07-26 22:37:00,
2013-07-26 18:38:00,73.2,60.3,30.02,NW,324,0.0,1.0,64,0.00,,---,0.00,VWS V14.01,2013-07-26 22:38:00,
2013-07-26 18:42:00,73.0,60.5,30.02,NW,324,0.0,1.0,65,0.00,,---,0.00,VWS V14.01,2013-07-26 22:42:00,
2013-07-26 18:43:00,72.9,60.9,30.02,NW,323,0.0,1.0,66,0.00,,---,0.00,VWS V14.01,2013-07-26 22:43:00,
2013-07-26 18:44:00,72.9,60.9,30.02,NW,324,0.0,1.0,66,0.00,,---,0.00,VWS V14.01,2013-07-26 22:44:00,
2013-07-26 18:47:00,72.4,60.4,30.02,NW,324,0.0,1.0,66,0.00,,---,0.00,VWS V14.01,2013-07-26 22:47:00,
2013-07-26 18:48:00,72.4,60.4,30.02,NW,324,0.0,1.0,66,0.00,,---,0.00,VWS V14.01,2013-07-26 22:48:00,
2013-07-26 18:49:00,72.3,60.3,30.02,NW,324,0.0,1.0,66,0.00,,---,0.00,VWS V14.01,2013-07-26 22:49:00,
2013-07-26 18:53:00,72.1,60.5,30.02,NW,323,0.0,1.0,67,0.00,,---,0.00,VWS V14.01,2013-07-26 22:53:00,
2013-07-26 18:54:00,72.1,60.1,30.02,NW,324,0.0,1.0,66,0.00,,---,0.00,VWS V14.01,2013-07-26 22:54:00,
2013-07-26 18:58:00,72.1,60.5,30.02,NW,324,0.0,1.0,67,0.00,,---,0.00,VWS V14.01,2013-07-26 22:58:00,
2013-07-26 18:59:00,72.1,60.5,30.02,NW,323,0.0,1.0,67,0.00,,---,0.00,VWS V14.01,2013-07-26 22:59:00,
2013-07-26 19:00:00,72.1,60.5,30.02,NW,324,0.0,1.0,67,0.00,,---,0.00,VWS V14.01,2013-07-26 23:00:00,
2013-07-26 19:03:00,71.9,60.8,30.02,NW,323,0.0,1.0,68,0.00,,---,0.00,VWS V14.01,2013-07-26 23:03:00,
2013-07-26 19:04:00,71.9,60.8,30.02,NW,323,0.0,1.0,68,0.00,,---,0.00,VWS V14.01,2013-07-26 23:04:00,
2013-07-26 19:05:00,71.8,60.7,30.01,NW,324,0.0,0.0,68,0.00,,---,0.00,VWS V14.01,2013-07-26 23:05:00,
2013-07-26 19:06:00,71.8,60.7,30.01,NW,324,0.0,0.0,68,0.00,,---,0.00,VWS V14.01,2013-07-26 23:06:00,
2013-07-26 19:09:00,71.7,60.2,30.01,NW,324,0.0,0.0,67,0.00,,---,0.00,VWS V14.01,2013-07-26 23:09:00,
2013-07-26 19:10:00,71.8,60.7,30.01,NW,324,0.0,0.0,68,0.00,,---,0.00,VWS V14.01,2013-07-26 23:10:00,
2013-07-26 19:11:00,71.7,60.6,30.01,NW,323,0.0,0.0,68,0.00,,---,0.00,VWS V14.01,2013-07-26 23:11:00,
2013-07-26 19:12:00,71.7,61.0,30.01,NW,323,0.0,0.0,69,0.00,,---,0.00,VWS V14.01,2013-07-26 23:12:00,
2013-07-26 19:14:00,71.7,60.6,30.01,NW,324,0.0,0.0,68,0.00,,---,0.00,VWS V14.01,2013-07-26 23:14:00,
2013-07-26 19:15:00,71.7,60.6,30.01,NW,324,0.0,0.0,68,0.00,,---,0.00,VWS V14.01,2013-07-26 23:15:00,
2013-07-26 19:16:00,71.7,60.6,30.01,NW,324,0.0,0.0,68,0.00,,---,0.00,VWS V14.01,2013-07-26 23:16:00,
2013-07-26 19:17:00,71.7,60.6,30.01,NW,324,0.0,0.0,68,0.00,,---,0.00,VWS V14.01,2013-07-26 23:17:00,
2013-07-26 19:19:00,71.6,60.9,30.01,NW,324,0.0,0.0,69,0.00,,---,0.00,VWS V14.01,2013-07-26 23:19:00,
2013-07-26 19:20:00,71.6,60.9,30.02,NW,324,0.0,0.0,69,0.00,,---,0.00,VWS V14.01,2013-07-26 23:20:00,
2013-07-26 19:22:00,71.5,60.8,30.02,NW,323,0.0,0.0,69,0.00,,---,0.00,VWS V14.01,2013-07-26 23:22:00,
2013-07-26 19:23:00,71.5,60.8,30.01,NW,324,0.0,0.0,69,0.00,,---,0.00,VWS V14.01,2013-07-26 23:23:00,
2013-07-26 19:24:00,71.4,60.7,30.02,NW,323,0.0,0.0,69,0.00,,---,0.00,VWS V14.01,2013-07-26 23:24:00,
2013-07-26 19:26:00,71.3,60.6,30.02,NW,324,0.0,0.0,69,0.00,,---,0.00,VWS V14.01,2013-07-26 23:26:00,
2013-07-26 19:27:00,71.3,61.0,30.02,NW,324,0.0,0.0,70,0.00,,---,0.00,VWS V14.01,2013-07-26 23:27:00,
2013-07-26 19:28:00,71.3,61.0,30.02,NW,323,0.0,0.0,70,0.00,,---,0.00,VWS V14.01,2013-07-26 23:28:00,
2013-07-26 19:29:00,71.3,61.0,30.02,NW,324,0.0,0.0,70,0.00,,---,0.00,VWS V14.01,2013-07-26 23:29:00,
2013-07-26 19:31:00,71.1,60.4,30.02,NW,324,0.0,0.0,69,0.00,,---,0.00,VWS V14.01,2013-07-26 23:31:00,
2013-07-26 19:33:00,71.1,60.4,30.02,NW,323,0.0,0.0,69,0.00,,---,0.00,VWS V14.01,2013-07-26 23:33:00,
2013-07-26 19:34:00,71.1,60.4,30.02,NW,324,0.0,0.0,69,0.00,,---,0.00,VWS V14.01,2013-07-26 23:34:00,
2013-07-26 19:36:00,71.0,60.7,30.02,NW,323,0.0,0.0,70,0.00,,---,0.00,VWS V14.01,2013-07-26 23:36:00,
2013-07-26 19:38:00,70.9,60.6,30.02,NW,323,0.0,0.0,70,0.00,,---,0.00,VWS V14.01,2013-07-26 23:38:00,
2013-07-26 19:39:00,70.9,60.6,30.02,NW,324,0.0,0.0,70,0.00,,---,0.00,VWS V14.01,2013-07-26 23:39:00,
2013-07-26 19:41:00,70.8,60.5,30.02,NW,323,0.0,0.0,70,0.00,,---,0.00,VWS V14.01,2013-07-26 23:41:00,
2013-07-26 19:42:00,70.8,60.1,30.02,NW,324,0.0,0.0,69,0.00,,---,0.00,VWS V14.01,2013-07-26 23:42:00,
2013-07-26 19:43:00,70.7,60.5,30.02,NW,324,0.0,0.0,70,0.00,,---,0.00,VWS V14.01,2013-07-26 23:43:00,
2013-07-26 19:46:00,70.6,60.0,30.02,NW,323,0.0,0.0,69,0.00,,---,0.00,VWS V14.01,2013-07-26 23:46:00,
2013-07-26 19:47:00,70.7,60.0,30.02,NW,324,0.0,0.0,69,0.00,,---,0.00,VWS V14.01,2013-07-26 23:47:00,
2013-07-26 19:48:00,70.6,60.3,30.02,NW,324,0.0,0.0,70,0.00,,---,0.00,VWS V14.01,2013-07-26 23:48:00,
2013-07-26 19:51:00,70.5,59.8,30.02,NW,324,0.0,0.0,69,0.00,,---,0.00,VWS V14.01,2013-07-26 23:51:00,
2013-07-26 19:52:00,70.4,59.8,30.02,NW,324,0.0,0.0,69,0.00,,---,0.00,VWS V14.01,2013-07-26 23:52:00,
2013-07-26 19:53:00,70.4,60.2,30.02,NW,324,0.0,0.0,70,0.00,,---,0.00,VWS V14.01,2013-07-26 23:53:00,
2013-07-26 19:54:00,70.4,60.2,30.02,NW,323,0.0,0.0,70,0.00,,---,0.00,VWS V14.01,2013-07-26 23:54:00,
2013-07-26 19:56:00,70.3,59.7,30.02,NW,324,0.0,0.0,69,0.00,,---,0.00,VWS V14.01,2013-07-26 23:56:00,
2013-07-26 19:57:00,70.3,60.1,30.02,NW,324,0.0,0.0,70,0.00,,---,0.00,VWS V14.01,2013-07-26 23:57:00,
2013-07-26 19:58:00,70.2,60.0,30.02,NW,324,0.0,0.0,70,0.00,,---,0.00,VWS V14.01,2013-07-26 23:58:00,
2013-07-26 19:59:00,70.2,59.6,30.02,NW,324,0.0,0.0,69,0.00,,---,0.00,VWS V14.01,2013-07-26 23:59:00,
2013-07-26 20:00:00,70.1,59.9,30.02,NW,324,0.0,0.0,70,0.00,,---,0.00,VWS V14.01,2013-07-27 00:00:00,
2013-07-26 20:02:00,70.0,59.8,30.02,NW,324,0.0,0.0,70,0.00,,---,0.00,VWS V14.01,2013-07-27 00:02:00,
2013-07-26 20:03:00,70.0,59.8,30.02,NW,323,0.0,0.0,70,0.00,,---,0.00,VWS V14.01,2013-07-27 00:03:00,
2013-07-26 20:04:00,70.0,59.8,30.02,NW,324,0.0,0.0,70,0.00,,---,0.00,VWS V14.01,2013-07-27 00:04:00,
2013-07-26 20:05:00,69.9,59.7,30.01,NW,323,0.0,0.0,70,0.00,,---,0.00,VWS V14.01,2013-07-27 00:05:00,
2013-07-26 20:07:00,69.8,59.6,30.01,NW,323,0.0,0.0,70,0.00,,---,0.00,VWS V14.01,2013-07-27 00:07:00,
2013-07-26 20:08:00,69.8,59.6,30.01,NW,323,0.0,0.0,70,0.00,,---,0.00,VWS V14.01,2013-07-27 00:08:00,
2013-07-26 20:09:00,69.7,59.9,30.01,NW,324,0.0,0.0,71,0.00,,---,0.00,VWS V14.01,2013-07-27 00:09:00,
2013-07-26 20:10:00,69.6,59.8,30.01,NW,323,0.0,0.0,71,0.00,,---,0.00,VWS V14.01,2013-07-27 00:10:00,
2013-07-26 20:13:00,69.5,59.7,30.01,NW,324,0.0,0.0,71,0.00,,---,0.00,VWS V14.01,2013-07-27 00:13:00,
2013-07-26 20:14:00,69.5,60.1,30.01,NW,323,0.0,0.0,72,0.00,,---,0.00,VWS V14.01,2013-07-27 00:14:00,
2013-07-26 20:15:00,69.4,59.6,30.01,NW,324,0.0,0.0,71,0.00,,---,0.00,VWS V14.01,2013-07-27 00:15:00,
2013-07-26 20:18:00,69.4,60.0,30.01,NW,323,0.0,0.0,72,0.00,,---,0.00,VWS V14.01,2013-07-27 00:18:00,
2013-07-26 20:19:00,69.3,59.9,30.02,NW,323,0.0,0.0,72,0.00,,---,0.00,VWS V14.01,2013-07-27 00:19:00,
2013-07-26 20:21:00,69.2,59.8,30.02,NW,324,0.0,0.0,72,0.00,,---,0.00,VWS V14.01,2013-07-27 00:21:00,
2013-07-26 20:23:00,69.2,59.8,30.02,NW,324,0.0,0.0,72,0.00,,---,0.00,VWS V14.01,2013-07-27 00:23:00,
2013-07-26 20:24:00,69.2,59.8,30.02,NW,324,0.0,0.0,72,0.00,,---,0.00,VWS V14.01,2013-07-27 00:24:00,
2013-07-26 20:25:00,69.2,59.8,30.01,NW,324,0.0,0.0,72,0.00,,---,0.00,VWS V14.01,2013-07-27 00:25:00,
2013-07-26 20:27:00,69.2,59.8,30.02,NW,324,0.0,0.0,72,0.00,,---,0.00,VWS V14.01,2013-07-27 00:27:00,
2013-07-26 20:28:00,69.2,59.8,30.02,NW,323,0.0,0.0,72,0.00,,---,0.00,VWS V14.01,2013-07-27 00:28:00,
2013-07-26 20:29:00,69.2,59.8,30.02,NW,324,0.0,0.0,72,0.00,,---,0.00,VWS V14.01,2013-07-27 00:29:00,
2013-07-26 20:31:00,69.3,59.9,30.02,NW,324,0.0,0.0,72,0.00,,---,0.00,VWS V14.01,2013-07-27 00:31:00,
2013-07-26 20:33:00,69.2,60.2,30.02,NW,324,0.0,0.0,73,0.00,,---,0.00,VWS V14.01,2013-07-27 00:33:00,
2013-07-26 20:34:00,69.2,60.2,30.02,NW,323,0.0,0.0,73,0.00,,---,0.00,VWS V14.01,2013-07-27 00:34:00,
2013-07-26 20:35:00,69.2,60.2,30.02,NW,324,0.0,0.0,73,0.00,,---,0.00,VWS V14.01,2013-07-27 00:35:00,
2013-07-26 20:36:00,69.1,60.1,30.01,NW,324,0.0,0.0,73,0.00,,---,0.00,VWS V14.01,2013-07-27 00:36:00,
2013-07-26 20:39:00,69.0,60.4,30.02,NW,324,0.0,0.0,74,0.00,,---,0.00,VWS V14.01,2013-07-27 00:39:00,
2013-07-26 20:40:00,68.9,60.3,30.02,NW,324,0.0,0.0,74,0.00,,---,0.00,VWS V14.01,2013-07-27 00:40:00,
2013-07-26 20:43:00,68.7,60.1,30.02,NW,324,0.0,0.0,74,0.00,,---,0.00,VWS V14.01,2013-07-27 00:43:00,
2013-07-26 20:44:00,68.7,60.5,30.02,NW,323,0.0,0.0,75,0.00,,---,0.00,VWS V14.01,2013-07-27 00:44:00,
2013-07-26 20:45:00,68.6,60.4,30.02,NW,323,0.0,0.0,75,0.00,,---,0.00,VWS V14.01,2013-07-27 00:45:00,
2013-07-26 20:48:00,68.5,60.3,30.02,NW,324,0.0,0.0,75,0.00,,---,0.00,VWS V14.01,2013-07-27 00:48:00,
2013-07-26 20:49:00,68.5,60.3,30.02,NW,324,0.0,0.0,75,0.00,,---,0.00,VWS V14.01,2013-07-27 00:49:00,
2013-07-26 20:50:00,68.5,60.3,30.02,NW,324,0.0,0.0,75,0.00,,---,0.00,VWS V14.01,2013-07-27 00:50:00,
2013-07-26 20:51:00,68.5,60.3,30.02,NW,323,0.0,0.0,75,0.00,,---,0.00,VWS V14.01,2013-07-27 00:51:00,
2013-07-26 20:54:00,68.5,60.3,30.02,NW,324,0.0,0.0,75,0.00,,---,0.00,VWS V14.01,2013-07-27 00:54:00,
2013-07-26 20:55:00,68.5,60.3,30.02,NW,324,0.0,0.0,75,0.00,,---,0.00,VWS V14.01,2013-07-27 00:55:00,
2013-07-26 20:56:00,68.5,60.3,30.02,NW,324,0.0,0.0,75,0.00,,---,0.00,VWS V14.01,2013-07-27 00:56:00,
2013-07-26 21:00:00,68.5,60.3,30.02,NW,324,0.0,0.0,75,0.00,,---,0.00,VWS V14.01,2013-07-27 01:00:00,
2013-07-26 21:02:00,68.5,60.3,30.02,NW,324,0.0,0.0,75,0.00,,---,0.00,VWS V14.01,2013-07-27 01:02:00,
2013-07-26 21:05:00,68.4,60.2,30.02,NW,323,0.0,0.0,75,0.00,,---,0.00,VWS V14.01,2013-07-27 01:05:00,
2013-07-26 21:07:00,68.4,60.2,30.02,NW,324,0.0,0.0,75,0.00,,---,0.00,VWS V14.01,2013-07-27 01:07:00,
2013-07-26 21:10:00,68.4,60.2,30.02,NW,323,0.0,0.0,75,0.00,,---,0.00,VWS V14.01,2013-07-27 01:10:00,
2013-07-26 21:11:00,68.4,60.2,30.01,NW,324,0.0,0.0,75,0.00,,---,0.00,VWS V14.01,2013-07-27 01:11:00,
2013-07-26 21:12:00,68.4,60.2,30.01,NW,324,0.0,0.0,75,0.00,,---,0.00,VWS V14.01,2013-07-27 01:12:00,
2013-07-26 21:16:00,68.4,60.2,30.02,NW,323,0.0,0.0,75,0.00,,---,0.00,VWS V14.01,2013-07-27 01:16:00,
2013-07-26 21:17:00,68.3,60.1,30.02,NW,324,0.0,0.0,75,0.00,,---,0.00,VWS V14.01,2013-07-27 01:17:00,
2013-07-26 21:18:00,68.3,60.1,30.02,NW,323,0.0,0.0,75,0.00,,---,0.00,VWS V14.01,2013-07-27 01:18:00,
2013-07-26 21:22:00,68.3,60.1,30.02,NW,324,0.0,0.0,75,0.00,,---,0.00,VWS V14.01,2013-07-27 01:22:00,
2013-07-26 21:23:00,68.3,60.1,30.02,NW,323,0.0,0.0,75,0.00,,---,0.00,VWS V14.01,2013-07-27 01:23:00,
2013-07-26 21:27:00,68.3,59.7,30.02,NW,324,0.0,0.0,74,0.00,,---,0.00,VWS V14.01,2013-07-27 01:27:00,
2013-07-26 21:28:00,68.3,59.7,30.02,NW,323,0.0,0.0,74,0.00,,---,0.00,VWS V14.01,2013-07-27 01:28:00,
2013-07-26 21:32:00,68.3,59.7,30.02,NW,324,0.0,0.0,74,0.00,,---,0.00,VWS V14.01,2013-07-27 01:32:00,
2013-07-26 21:33:00,68.3,59.7,30.02,NW,324,0.0,0.0,74,0.00,,---,0.00,VWS V14.01,2013-07-27 01:33:00,
2013-07-26 21:37:00,68.3,60.1,30.02,NW,324,0.0,0.0,75,0.00,,---,0.00,VWS V14.01,2013-07-27 01:37:00,
2013-07-26 21:38:00,68.3,60.1,30.02,NW,324,0.0,0.0,75,0.00,,---,0.00,VWS V14.01,2013-07-27 01:38:00,
2013-07-26 21:39:00,68.3,60.1,30.02,NW,324,0.0,0.0,75,0.00,,---,0.00,VWS V14.01,2013-07-27 01:39:00,
2013-07-26 21:43:00,68.2,60.0,30.02,NW,324,0.0,0.0,75,0.00,,---,0.00,VWS V14.01,2013-07-27 01:43:00,
2013-07-26 21:44:00,68.2,60.0,30.02,NW,323,0.0,0.0,75,0.00,,---,0.00,VWS V14.01,2013-07-27 01:44:00,
2013-07-26 21:45:00,68.1,59.9,30.02,NW,324,0.0,0.0,75,0.00,,---,0.00,VWS V14.01,2013-07-27 01:45:00,
2013-07-26 21:48:00,68.1,59.9,30.02,NW,324,0.0,0.0,75,0.00,,---,0.00,VWS V14.01,2013-07-27 01:48:00,
2013-07-26 21:49:00,68.1,59.9,30.02,NW,324,0.0,0.0,75,0.00,,---,0.00,VWS V14.01,2013-07-27 01:49:00,
2013-07-26 21:52:00,68.1,59.9,30.02,NW,323,0.0,0.0,75,0.00,,---,0.00,VWS V14.01,2013-07-27 01:52:00,
2013-07-26 21:53:00,68.1,59.9,30.02,NW,323,0.0,0.0,75,0.00,,---,0.00,VWS V14.01,2013-07-27 01:53:00,
2013-07-26 21:54:00,68.1,59.9,30.02,NW,324,0.0,0.0,75,0.00,,---,0.00,VWS V14.01,2013-07-27 01:54:00,
2013-07-26 21:55:00,68.1,59.9,30.02,NW,323,0.0,0.0,75,0.00,,---,0.00,VWS V14.01,2013-07-27 01:55:00,
2013-07-26 21:57:00,68.1,59.9,30.02,NW,324,0.0,0.0,75,0.00,,---,0.00,VWS V14.01,2013-07-27 01:57:00,
2013-07-26 21:58:00,68.1,59.9,30.02,NW,323,0.0,0.0,75,0.00,,---,0.00,VWS V14.01,2013-07-27 01:58:00,
2013-07-26 21:59:00,68.1,59.9,30.02,NW,323,0.0,0.0,75,0.00,,---,0.00,VWS V14.01,2013-07-27 01:59:00,
2013-07-26 22:01:00,68.0,59.8,30.03,NW,324,0.0,0.0,75,0.00,,---,0.00,VWS V14.01,2013-07-27 02:01:00,
2013-07-26 22:03:00,68.0,59.8,30.02,NW,324,0.0,0.0,75,0.00,,---,0.00,VWS V14.01,2013-07-27 02:03:00,
2013-07-26 22:04:00,68.0,59.8,30.02,NW,323,0.0,0.0,75,0.00,,---,0.00,VWS V14.01,2013-07-27 02:04:00,
2013-07-26 22:05:00,68.0,59.8,30.02,NW,324,0.0,0.0,75,0.00,,---,0.00,VWS V14.01,2013-07-27 02:05:00,
2013-07-26 22:06:00,68.0,59.8,30.02,NW,323,0.0,0.0,75,0.00,,---,0.00,VWS V14.01,2013-07-27 02:06:00,
2013-07-26 22:09:00,68.0,59.8,30.02,NW,324,0.0,0.0,75,0.00,,---,0.00,VWS V14.01,2013-07-27 02:09:00,
2013-07-26 22:10:00,67.9,59.7,30.02,NW,324,0.0,0.0,75,0.00,,---,0.00,VWS V14.01,2013-07-27 02:10:00,
2013-07-26 22:12:00,67.9,59.7,30.02,NW,324,0.0,0.0,75,0.00,,---,0.00,VWS V14.01,2013-07-27 02:12:00,
2013-07-26 22:14:00,67.8,59.6,30.02,NW,324,0.0,0.0,75,0.00,,---,0.00,VWS V14.01,2013-07-27 02:14:00,
2013-07-26 22:15:00,67.8,59.6,30.02,NW,324,0.0,0.0,75,0.00,,---,0.00,VWS V14.01,2013-07-27 02:15:00,
2013-07-26 22:16:00,67.8,59.6,30.02,NW,324,0.0,0.0,75,0.00,,---,0.00,VWS V14.01,2013-07-27 02:16:00,
2013-07-26 22:17:00,67.8,59.6,30.02,NW,323,0.0,0.0,75,0.00,,---,0.00,VWS V14.01,2013-07-27 02:17:00,
2013-07-26 22:19:00,67.7,59.5,30.02,NW,323,0.0,0.0,75,0.00,,---,0.00,VWS V14.01,2013-07-27 02:19:00,
2013-07-26 22:20:00,67.7,59.5,30.02,NW,324,0.0,0.0,75,0.00,,---,0.00,VWS V14.01,2013-07-27 02:20:00,
2013-07-26 22:22:00,67.7,59.5,30.02,NW,323,0.0,0.0,75,0.00,,---,0.00,VWS V14.01,2013-07-27 02:22:00,
2013-07-26 22:25:00,67.7,59.1,30.02,NW,324,0.0,1.0,74,0.00,,---,0.00,VWS V14.01,2013-07-27 02:25:00,
2013-07-26 22:26:00,67.7,59.1,30.02,NW,324,0.0,1.0,74,0.00,,---,0.00,VWS V14.01,2013-07-27 02:26:00,
2013-07-26 22:27:00,67.7,59.1,30.02,NW,324,0.0,1.0,74,0.00,,---,0.00,VWS V14.01,2013-07-27 02:27:00,
2013-07-26 22:30:00,67.7,59.1,30.02,NW,324,0.0,1.0,74,0.00,,---,0.00,VWS V14.01,2013-07-27 02:30:00,
2013-07-26 22:32:00,67.6,59.4,30.02,NW,324,0.0,1.0,75,0.00,,---,0.00,VWS V14.01,2013-07-27 02:32:00,
2013-07-26 22:33:00,67.6,59.4,30.02,NW,324,0.0,1.0,75,0.00,,---,0.00,VWS V14.01,2013-07-27 02:33:00,
2013-07-26 22:35:00,67.7,59.5,30.02,NW,323,0.0,0.0,75,0.00,,---,0.00,VWS V14.01,2013-07-27 02:35:00,
2013-07-26 22:37:00,67.7,59.5,30.02,NW,323,0.0,0.0,75,0.00,,---,0.00,VWS V14.01,2013-07-27 02:37:00,
2013-07-26 22:38:00,67.7,59.1,30.02,NW,323,0.0,0.0,74,0.00,,---,0.00,VWS V14.01,2013-07-27 02:38:00,
2013-07-26 22:39:00,67.8,59.2,30.02,NW,323,0.0,0.0,74,0.00,,---,0.00,VWS V14.01,2013-07-27 02:39:00,
2013-07-26 22:41:00,67.8,59.2,30.02,NW,323,0.0,0.0,74,0.00,,---,0.00,VWS V14.01,2013-07-27 02:41:00,
2013-07-26 22:42:00,67.8,59.2,30.02,NW,323,0.0,0.0,74,0.00,,---,0.00,VWS V14.01,2013-07-27 02:42:00,
2013-07-26 22:43:00,67.8,59.2,30.02,NW,323,0.0,0.0,74,0.00,,---,0.00,VWS V14.01,2013-07-27 02:43:00,
2013-07-26 22:45:00,67.9,59.3,30.02,NW,323,0.0,0.0,74,0.00,,---,0.00,VWS V14.01,2013-07-27 02:45:00,
2013-07-26 22:46:00,67.8,59.2,30.02,NW,323,0.0,0.0,74,0.00,,---,0.00,VWS V14.01,2013-07-27 02:46:00,
2013-07-26 22:47:00,67.8,59.2,30.02,NW,323,0.0,0.0,74,0.00,,---,0.00,VWS V14.01,2013-07-27 02:47:00,
2013-07-26 22:48:00,67.8,59.6,30.02,NW,323,0.0,0.0,75,0.00,,---,0.00,VWS V14.01,2013-07-27 02:48:00,
2013-07-26 22:50:00,67.8,59.2,30.02,NW,323,0.0,0.0,74,0.00,,---,0.00,VWS V14.01,2013-07-27 02:50:00,
2013-07-26 22:51:00,67.8,59.2,30.02,NW,323,0.0,0.0,74,0.00,,---,0.00,VWS V14.01,2013-07-27 02:51:00,
2013-07-26 22:53:00,67.7,59.1,30.02,NW,323,0.0,0.0,74,0.00,,---,0.00,VWS V14.01,2013-07-27 02:53:00,
2013-07-26 22:54:00,67.7,59.1,30.02,NW,323,0.0,0.0,74,0.00,,---,0.00,VWS V14.01,2013-07-27 02:54:00,
2013-07-26 22:55:00,67.7,59.1,30.02,NW,323,0.0,0.0,74,0.00,,---,0.00,VWS V14.01,2013-07-27 02:55:00,
2013-07-26 22:56:00,67.7,59.1,30.02,NW,323,0.0,0.0,74,0.00,,---,0.00,VWS V14.01,2013-07-27 02:56:00,
2013-07-26 22:58:00,67.7,59.1,30.02,NW,323,0.0,0.0,74,0.00,,---,0.00,VWS V14.01,2013-07-27 02:58:00,
2013-07-26 22:59:00,67.7,59.1,30.02,NW,323,0.0,0.0,74,0.00,,---,0.00,VWS V14.01,2013-07-27 02:59:00,
2013-07-26 23:00:00,67.6,59.0,30.02,NW,323,0.0,0.0,74,0.00,,---,0.00,VWS V14.01,2013-07-27 03:00:00,
2013-07-26 23:01:00,67.6,59.0,30.02,NW,323,0.0,0.0,74,0.00,,---,0.00,VWS V14.01,2013-07-27 03:01:00,
2013-07-26 23:02:00,67.6,59.0,30.02,NW,323,0.0,0.0,74,0.00,,---,0.00,VWS V14.01,2013-07-27 03:02:00,
2013-07-26 23:04:00,67.6,59.0,30.02,NW,323,0.0,0.0,74,0.00,,---,0.00,VWS V14.01,2013-07-27 03:04:00,
2013-07-26 23:05:00,67.6,59.0,30.02,NW,323,0.0,0.0,74,0.00,,---,0.00,VWS V14.01,2013-07-27 03:05:00,
2013-07-26 23:07:00,67.6,59.0,30.03,NW,323,0.0,0.0,74,0.00,,---,0.00,VWS V14.01,2013-07-27 03:07:00,
2013-07-26 23:09:00,67.6,59.0,30.03,NW,323,0.0,0.0,74,0.00,,---,0.00,VWS V14.01,2013-07-27 03:09:00,
2013-07-26 23:10:00,67.6,59.0,30.03,NW,323,0.0,0.0,74,0.00,,---,0.00,VWS V14.01,2013-07-27 03:10:00,
2013-07-26 23:12:00,67.6,59.0,30.02,NW,323,0.0,0.0,74,0.00,,---,0.00,VWS V14.01,2013-07-27 03:12:00,
2013-07-26 23:14:00,67.6,59.0,30.03,NW,323,0.0,0.0,74,0.00,,---,0.00,VWS V14.01,2013-07-27 03:14:00,
2013-07-26 23:15:00,67.6,59.0,30.02,NW,323,0.0,0.0,74,0.00,,---,0.00,VWS V14.01,2013-07-27 03:15:00,
2013-07-26 23:17:00,67.6,58.7,30.02,NW,323,0.0,0.0,73,0.00,,---,0.00,VWS V14.01,2013-07-27 03:17:00,
2013-07-26 23:18:00,67.6,58.7,30.02,NW,323,0.0,0.0,73,0.00,,---,0.00,VWS V14.01,2013-07-27 03:18:00,
2013-07-26 23:19:00,67.6,58.7,30.02,NW,323,0.0,0.0,73,0.00,,---,0.00,VWS V14.01,2013-07-27 03:19:00,
2013-07-26 23:20:00,67.6,58.7,30.02,NW,323,0.0,0.0,73,0.00,,---,0.00,VWS V14.01,2013-07-27 03:20:00,
2013-07-26 23:22:00,67.6,58.7,30.02,NW,323,0.0,0.0,73,0.00,,---,0.00,VWS V14.01,2013-07-27 03:22:00,
2013-07-26 23:23:00,67.6,58.7,30.02,NW,323,0.0,0.0,73,0.00,,---,0.00,VWS V14.01,2013-07-27 03:23:00,
2013-07-26 23:25:00,67.6,58.7,30.03,NW,323,0.0,0.0,73,0.00,,---,0.00,VWS V14.01,2013-07-27 03:25:00,
2013-07-26 23:27:00,67.6,58.7,30.03,NW,323,0.0,0.0,73,0.00,,---,0.00,VWS V14.01,2013-07-27 03:27:00,
2013-07-26 23:28:00,67.6,58.7,30.03,NW,323,0.0,0.0,73,0.00,,---,0.00,VWS V14.01,2013-07-27 03:28:00,
2013-07-26 23:30:00,67.6,58.7,30.03,NW,323,0.0,0.0,73,0.00,,---,0.00,VWS V14.01,2013-07-27 03:30:00,
2013-07-26 23:31:00,67.6,58.7,30.03,NW,323,0.0,0.0,73,0.00,,---,0.00,VWS V14.01,2013-07-27 03:31:00,
2013-07-26 23:33:00,67.6,58.7,30.03,NW,323,0.0,0.0,73,0.00,,---,0.00,VWS V14.01,2013-07-27 03:33:00,
2013-07-26 23:34:00,67.6,58.7,30.02,NW,323,0.0,0.0,73,0.00,,---,0.00,VWS V14.01,2013-07-27 03:34:00,
2013-07-26 23:36:00,67.6,58.7,30.03,NW,323,0.0,0.0,73,0.00,,---,0.00,VWS V14.01,2013-07-27 03:36:00,
2013-07-26 23:37:00,67.6,58.7,30.03,NW,323,0.0,0.0,73,0.00,,---,0.00,VWS V14.01,2013-07-27 03:37:00,
2013-07-26 23:38:00,67.6,58.7,30.03,NW,323,0.0,0.0,73,0.00,,---,0.00,VWS V14.01,2013-07-27 03:38:00,
2013-07-26 23:39:00,67.6,59.0,30.03,NW,323,0.0,0.0,74,0.00,,---,0.00,VWS V14.01,2013-07-27 03:39:00,
2013-07-26 23:42:00,67.6,58.7,30.03,NW,323,0.0,0.0,73,0.00,,---,0.00,VWS V14.01,2013-07-27 03:42:00,
2013-07-26 23:44:00,67.6,58.7,30.03,NW,323,0.0,0.0,73,0.00,,---,0.00,VWS V14.01,2013-07-27 03:44:00,
2013-07-26 23:45:00,67.6,58.7,30.03,NW,323,0.0,0.0,73,0.00,,---,0.00,VWS V14.01,2013-07-27 03:45:00,
2013-07-26 23:47:00,67.6,58.7,30.03,NW,323,0.0,0.0,73,0.00,,---,0.00,VWS V14.01,2013-07-27 03:47:00,
2013-07-26 23:48:00,67.6,58.7,30.03,NW,323,0.0,0.0,73,0.00,,---,0.00,VWS V14.01,2013-07-27 03:48:00,
2013-07-26 23:49:00,67.7,58.7,30.03,NW,323,0.0,0.0,73,0.00,,---,0.00,VWS V14.01,2013-07-27 03:49:00,
2013-07-26 23:50:00,67.6,58.7,30.03,NW,323,0.0,0.0,73,0.00,,---,0.00,VWS V14.01,2013-07-27 03:50:00,
2013-07-26 23:52:00,67.6,58.7,30.03,NW,323,0.0,0.0,73,0.00,,---,0.00,VWS V14.01,2013-07-27 03:52:00,
2013-07-26 23:53:00,67.6,58.7,30.03,NW,323,0.0,0.0,73,0.00,,---,0.00,VWS V14.01,2013-07-27 03:53:00,
2013-07-26 23:54:00,67.6,59.0,30.03,NW,323,0.0,0.0,74,0.00,,---,0.00,VWS V14.01,2013-07-27 03:54:00,
2013-07-26 23:55:00,67.6,59.0,30.03,NW,323,0.0,0.0,74,0.00,,---,0.00,VWS V14.01,2013-07-27 03:55:00,
2013-07-26 23:57:00,67.6,59.0,30.03,NW,323,0.0,0.0,74,0.00,,---,0.00,VWS V14.01,2013-07-27 03:57:00,
2013-07-26 23:58:00,67.6,59.0,30.03,NW,323,0.0,0.0,74,0.00,,---,0.00,VWS V14.01,2013-07-27 03:58:00,
2013-07-26 23:59:00,67.6,59.0,30.03,NW,323,0.0,0.0,74,0.00,,---,0.00,VWS V14.01,2013-07-27 03:59:00,